| time (UTC) | temp C | wind direction | speed KPH | gust KPH | rain 1hr cm | rain 24hr cm | rain mn cm | humidity % | barometer mb |
| 20260902185149 | 33 | 244 | 14.5 | 22.5 | 0.00 | 0.15 | 0.00 | 64 | 1011.2 |
| 20260902185049 | 33 | 238 | 16.1 | 22.5 | 0.00 | 0.15 | 0.00 | 64 | 1011.3 |
| 20260902184950 | 33 | 234 | 12.9 | 20.9 | 0.00 | 0.15 | 0.00 | 63 | 1011.2 |
| 20260902184849 | 34 | 261 | 11.3 | 20.9 | 0.00 | 0.15 | 0.00 | 64 | 1011.3 |
| 20260902184749 | 33 | 248 | 11.3 | 20.9 | 0.00 | 0.15 | 0.00 | 64 | 1011.3 |
| 20260902184649 | 33 | 238 | 12.9 | 20.9 | 0.00 | 0.15 | 0.00 | 64 | 1011.4 |
| 20260902184550 | 33 | 227 | 14.5 | 19.3 | 0.00 | 0.15 | 0.00 | 64 | 1011.4 |
| 20260902184448 | 33 | 220 | 12.9 | 19.3 | 0.00 | 0.15 | 0.00 | 64 | 1011.3 |
| 20260902184348 | 33 | 248 | 11.3 | 19.3 | 0.00 | 0.15 | 0.00 | 64 | 1011.4 |
| 20260902184250 | 33 | 228 | 11.3 | 19.3 | 0.00 | 0.15 | 0.00 | 64 | 1011.3 |
| 20260902184148 | 33 | 244 | 11.3 | 19.3 | 0.00 | 0.15 | 0.00 | 64 | 1011.4 |
| 20260902184048 | 33 | 213 | 11.3 | 19.3 | 0.00 | 0.15 | 0.00 | 64 | 1011.4 |
| 20260902183948 | 33 | 237 | 11.3 | 19.3 | 0.00 | 0.15 | 0.00 | 65 | 1011.4 |
| 20260902183849 | 33 | 250 | 9.7 | 20.9 | 0.00 | 0.15 | 0.00 | 65 | 1011.5 |
| 20260902183748 | 33 | 217 | 9.7 | 20.9 | 0.00 | 0.15 | 0.00 | 66 | 1011.5 |
| 20260902183649 | 33 | 217 | 8.0 | 20.9 | 0.00 | 0.15 | 0.00 | 66 | 1011.6 |
| 20260902183550 | 33 | 210 | 9.7 | 20.9 | 0.00 | 0.15 | 0.00 | 66 | 1011.6 |
| 20260902183448 | 33 | 209 | 9.7 | 20.9 | 0.00 | 0.15 | 0.00 | 66 | 1011.6 |
| 20260902183348 | 33 | 243 | 11.3 | 20.9 | 0.00 | 0.15 | 0.00 | 66 | 1011.5 |
| 20260902183248 | 33 | 251 | 9.7 | 20.9 | 0.00 | 0.15 | 0.00 | 66 | 1011.6 |
| 20260902183149 | 33 | 228 | 9.7 | 20.9 | 0.00 | 0.15 | 0.00 | 67 | 1011.6 |
| 20260902183048 | 33 | 237 | 12.9 | 20.9 | 0.00 | 0.15 | 0.00 | 66 | 1011.6 |
| 20260902182949 | 33 | 230 | 12.9 | 22.5 | 0.00 | 0.15 | 0.00 | 66 | 1011.6 |
| 20260902182849 | 33 | 214 | 9.7 | 22.5 | 0.00 | 0.15 | 0.00 | 67 | 1011.7 |
| 20260902182749 | 33 | 245 | 11.3 | 22.5 | 0.00 | 0.15 | 0.00 | 67 | 1011.6 |
| 20260902182648 | 33 | 238 | 11.3 | 22.5 | 0.00 | 0.15 | 0.00 | 67 | 1011.7 |
| 20260902182548 | 33 | 243 | 9.7 | 22.5 | 0.00 | 0.15 | 0.00 | 67 | 1011.8 |
| 20260902182451 | 32 | 233 | 9.7 | 22.5 | 0.00 | 0.15 | 0.00 | 67 | 1011.7 |
| 20260902182348 | 32 | 228 | 11.3 | 22.5 | 0.00 | 0.15 | 0.00 | 67 | 1011.7 |
| 20260902182249 | 32 | 271 | 12.9 | 22.5 | 0.00 | 0.15 | 0.00 | 66 | 1011.8 |
| 20260902182149 | 32 | 233 | 14.5 | 22.5 | 0.00 | 0.15 | 0.00 | 66 | 1011.8 |
| 20260902182048 | 32 | 240 | 12.9 | 22.5 | 0.00 | 0.15 | 0.00 | 66 | 1011.9 |
| 20260902181948 | 32 | 269 | 9.7 | 19.3 | 0.00 | 0.15 | 0.00 | 67 | 1011.8 |
| 20260902181848 | 33 | 306 | 9.7 | 19.3 | 0.00 | 0.15 | 0.00 | 67 | 1011.9 |
| 20260902181749 | 33 | 310 | 9.7 | 19.3 | 0.00 | 0.15 | 0.00 | 67 | 1011.8 |
| 20260902181648 | 32 | 271 | 9.7 | 19.3 | 0.00 | 0.15 | 0.00 | 68 | 1012.0 |
| 20260902181548 | 32 | 233 | 11.3 | 19.3 | 0.00 | 0.15 | 0.00 | 68 | 1011.8 |
| 20260902181450 | 32 | 178 | 12.9 | 19.3 | 0.00 | 0.15 | 0.00 | 69 | 1012.0 |
| 20260902181349 | 32 | 192 | 11.3 | 22.5 | 0.00 | 0.15 | 0.00 | 69 | 1012.0 |
| 20260902181249 | 32 | 257 | 9.7 | 22.5 | 0.00 | 0.15 | 0.00 | 69 | 1012.0 |
| 20260902181148 | 32 | 209 | 11.3 | 22.5 | 0.00 | 0.15 | 0.00 | 69 | 1012.1 |
| 20260902181049 | 32 | 240 | 11.3 | 22.5 | 0.00 | 0.15 | 0.00 | 69 | 1012.1 |
| 20260902180948 | 32 | 238 | 9.7 | 22.5 | 0.00 | 0.15 | 0.00 | 68 | 1012.1 |
| 20260902180847 | 32 | 245 | 9.7 | 22.5 | 0.00 | 0.15 | 0.00 | 68 | 1012.1 |
| 20260902180749 | 32 | 288 | 9.7 | 22.5 | 0.00 | 0.15 | 0.00 | 68 | 1012.2 |
| 20260902180649 | 32 | 261 | 11.3 | 22.5 | 0.00 | 0.15 | 0.00 | 68 | 1012.2 |
| 20260902180549 | 32 | 244 | 14.5 | 22.5 | 0.00 | 0.15 | 0.00 | 69 | 1012.3 |
| 20260902180449 | 32 | 238 | 16.1 | 22.5 | 0.00 | 0.15 | 0.00 | 68 | 1012.2 |
| 20260902180348 | 32 | 227 | 16.1 | 22.5 | 0.00 | 0.15 | 0.00 | 68 | 1012.3 |
| 20260902180248 | 32 | 234 | 14.5 | 20.9 | 0.00 | 0.15 | 0.00 | 68 | 1012.3 |
| 20260902180147 | 32 | 212 | 14.5 | 20.9 | 0.00 | 0.15 | 0.00 | 68 | 1012.3 |
| 20260902180051 | 32 | 227 | 12.9 | 20.9 | 0.00 | 0.15 | 0.00 | 68 | 1012.3 |
| 20260902175947 | 32 | 269 | 11.3 | 20.9 | 0.00 | 0.15 | 0.00 | 68 | 1012.3 |
| 20260902175847 | 32 | 223 | 11.3 | 20.9 | 0.00 | 0.15 | 0.00 | 68 | 1012.4 |
| 20260902175749 | 32 | 278 | 9.7 | 20.9 | 0.00 | 0.15 | 0.00 | 68 | 1012.4 |
| 20260902175649 | 32 | 257 | 9.7 | 20.9 | 0.00 | 0.15 | 0.00 | 68 | 1012.5 |
| 20260902175548 | 32 | 233 | 12.9 | 20.9 | 0.00 | 0.15 | 0.00 | 68 | 1012.5 |
| 20260902175447 | 32 | 206 | 14.5 | 20.9 | 0.00 | 0.15 | 0.00 | 68 | 1012.4 |
| 20260902175348 | 32 | 226 | 14.5 | 20.9 | 0.00 | 0.15 | 0.00 | 68 | 1012.5 |
| 20260902175247 | 32 | 243 | 12.9 | 19.3 | 0.00 | 0.15 | 0.00 | 68 | 1012.5 |
| 20260902175147 | 32 | 227 | 12.9 | 19.3 | 0.00 | 0.15 | 0.00 | 68 | 1012.5 |
| 20260902175047 | 32 | 271 | 12.9 | 20.9 | 0.00 | 0.15 | 0.00 | 69 | 1012.6 |
| 20260902174948 | 32 | 265 | 11.3 | 20.9 | 0.00 | 0.15 | 0.00 | 69 | 1012.6 |
| 20260902174848 | 32 | 302 | 9.7 | 20.9 | 0.00 | 0.15 | 0.00 | 69 | 1012.6 |
| 20260902174747 | 32 | 272 | 11.3 | 20.9 | 0.00 | 0.15 | 0.00 | 69 | 1012.5 |
| 20260902174648 | 32 | 261 | 14.5 | 20.9 | 0.00 | 0.15 | 0.00 | 68 | 1012.6 |
| 20260902174547 | 32 | 240 | 14.5 | 20.9 | 0.00 | 0.15 | 0.00 | 68 | 1012.6 |
| 20260902174447 | 32 | 262 | 11.3 | 24.1 | 0.00 | 0.15 | 0.00 | 69 | 1012.7 |
| 20260902174348 | 32 | 238 | 9.7 | 24.1 | 0.00 | 0.15 | 0.00 | 69 | 1012.7 |
| 20260902174248 | 32 | 213 | 11.3 | 24.1 | 0.00 | 0.15 | 0.00 | 69 | 1012.7 |
| 20260902174147 | 32 | 269 | 12.9 | 24.1 | 0.00 | 0.15 | 0.00 | 69 | 1012.7 |
| 20260902174047 | 32 | 235 | 11.3 | 24.1 | 0.00 | 0.15 | 0.00 | 69 | 1012.7 |
| 20260902173947 | 32 | 285 | 12.9 | 24.1 | 0.00 | 0.15 | 0.00 | 70 | 1012.7 |
| 20260902173847 | 32 | 243 | 14.5 | 24.1 | 0.00 | 0.15 | 0.00 | 70 | 1012.7 |
| 20260902173747 | 32 | 226 | 14.5 | 24.1 | 0.00 | 0.15 | 0.00 | 70 | 1012.7 |
| 20260902173648 | 32 | 235 | 16.1 | 24.1 | 0.00 | 0.15 | 0.00 | 69 | 1012.8 |
| 20260902173548 | 32 | 258 | 17.7 | 24.1 | 0.00 | 0.15 | 0.00 | 69 | 1012.8 |
| 20260902173448 | 32 | 245 | 14.5 | 25.7 | 0.00 | 0.15 | 0.00 | 69 | 1012.8 |
| 20260902173348 | 32 | 195 | 12.9 | 25.7 | 0.00 | 0.15 | 0.00 | 70 | 1012.8 |
| 20260902173248 | 32 | 254 | 9.7 | 25.7 | 0.00 | 0.15 | 0.00 | 70 | 1012.8 |
| 20260902173147 | 32 | 234 | 11.3 | 25.7 | 0.00 | 0.15 | 0.00 | 70 | 1012.8 |
| 20260902173047 | 32 | 224 | 12.9 | 25.7 | 0.00 | 0.15 | 0.00 | 70 | 1012.9 |
| 20260902172949 | 32 | 231 | 14.5 | 27.4 | 0.00 | 0.15 | 0.00 | 70 | 1012.8 |
| 20260902172848 | 32 | 199 | 16.1 | 27.4 | 0.00 | 0.15 | 0.00 | 70 | 1012.9 |
| 20260902172747 | 32 | 247 | 16.1 | 27.4 | 0.00 | 0.15 | 0.00 | 70 | 1012.8 |
| 20260902172647 | 31 | 231 | 17.7 | 27.4 | 0.00 | 0.15 | 0.00 | 71 | 1012.8 |
| 20260902172549 | 31 | 219 | 12.9 | 27.4 | 0.00 | 0.15 | 0.00 | 71 | 1012.9 |
| 20260902172447 | 31 | 235 | 12.9 | 27.4 | 0.00 | 0.15 | 0.00 | 71 | 1012.9 |
| 20260902172347 | 31 | 231 | 14.5 | 27.4 | 0.00 | 0.15 | 0.00 | 71 | 1013.0 |
| 20260902172248 | 31 | 274 | 17.7 | 27.4 | 0.00 | 0.15 | 0.00 | 72 | 1012.9 |
| 20260902172147 | 31 | 252 | 19.3 | 27.4 | 0.00 | 0.15 | 0.00 | 71 | 1012.9 |
| 20260902172047 | 31 | 214 | 20.9 | 27.4 | 0.00 | 0.15 | 0.00 | 71 | 1013.0 |
| 20260902171949 | 31 | 240 | 19.3 | 27.4 | 0.00 | 0.15 | 0.00 | 71 | 1013.0 |
| 20260902171847 | 31 | 233 | 19.3 | 27.4 | 0.00 | 0.15 | 0.00 | 71 | 1013.0 |
| 20260902171747 | 31 | 212 | 17.7 | 27.4 | 0.00 | 0.15 | 0.00 | 72 | 1013.1 |
| 20260902171648 | 31 | 250 | 17.7 | 27.4 | 0.00 | 0.15 | 0.00 | 72 | 1013.0 |
| 20260902171549 | 31 | 240 | 17.7 | 27.4 | 0.00 | 0.15 | 0.00 | 72 | 1013.0 |
| 20260902171448 | 31 | 206 | 14.5 | 27.4 | 0.00 | 0.15 | 0.00 | 73 | 1013.0 |
| 20260902171347 | 31 | 243 | 14.5 | 22.5 | 0.00 | 0.15 | 0.00 | 73 | 1013.1 |
| 20260902171247 | 31 | 219 | 16.1 | 22.5 | 0.00 | 0.15 | 0.00 | 74 | 1013.2 |
| 20260902171147 | 31 | 169 | 14.5 | 19.3 | 0.00 | 0.15 | 0.00 | 75 | 1013.2 |
| 20260902171046 | 31 | 250 | 14.5 | 22.5 | 0.00 | 0.15 | 0.00 | 75 | 1013.2 |
| 20260902170946 | 31 | 227 | 11.3 | 22.5 | 0.00 | 0.15 | 0.00 | 75 | 1013.2 |
| 20260902170847 | 31 | 272 | 9.7 | 22.5 | 0.00 | 0.15 | 0.00 | 75 | 1013.2 |
| 20260902170747 | 31 | 193 | 12.9 | 22.5 | 0.00 | 0.15 | 0.00 | 75 | 1013.2 |
| 20260902170646 | 31 | 243 | 11.3 | 22.5 | 0.00 | 0.15 | 0.00 | 75 | 1013.1 |
| 20260902170546 | 31 | 247 | 9.7 | 22.5 | 0.00 | 0.15 | 0.00 | 76 | 1013.1 |
| 20260902170448 | 31 | 237 | 9.7 | 22.5 | 0.00 | 0.15 | 0.00 | 76 | 1013.2 |
| 20260902170346 | 31 | 240 | 9.7 | 22.5 | 0.00 | 0.15 | 0.00 | 76 | 1013.3 |
| 20260902170246 | 31 | 298 | 11.3 | 22.5 | 0.00 | 0.15 | 0.00 | 76 | 1013.2 |
| 20260902170148 | 31 | 290 | 12.9 | 22.5 | 0.00 | 0.15 | 0.00 | 76 | 1013.2 |
| 20260902170047 | 31 | 231 | 11.3 | 24.1 | 0.00 | 0.15 | 0.00 | 76 | 1013.3 |
| 20260902165946 | 31 | 250 | 9.7 | 24.1 | 0.00 | 0.15 | 0.00 | 76 | 1013.3 |
| 20260902165847 | 31 | 257 | 9.7 | 24.1 | 0.00 | 0.15 | 0.00 | 76 | 1013.3 |
| 20260902165747 | 31 | 262 | 9.7 | 24.1 | 0.00 | 0.15 | 0.00 | 76 | 1013.3 |
| 20260902165649 | 31 | 320 | 11.3 | 24.1 | 0.00 | 0.15 | 0.00 | 76 | 1013.3 |
| 20260902165546 | 31 | 288 | 11.3 | 24.1 | 0.00 | 0.15 | 0.00 | 76 | 1013.4 |
| 20260902165447 | 31 | 298 | 9.7 | 24.1 | 0.00 | 0.15 | 0.00 | 77 | 1013.4 |
| 20260902165346 | 31 | 286 | 9.7 | 24.1 | 0.00 | 0.15 | 0.00 | 77 | 1013.4 |
| 20260902165246 | 31 | 296 | 11.3 | 24.1 | 0.00 | 0.15 | 0.00 | 76 | 1013.3 |
| 20260902165147 | 31 | 299 | 11.3 | 24.1 | 0.00 | 0.15 | 0.00 | 77 | 1013.3 |
| 20260902165047 | 31 | 278 | 12.9 | 20.9 | 0.00 | 0.15 | 0.00 | 76 | 1013.3 |
| 20260902164946 | 31 | 257 | 14.5 | 22.5 | 0.00 | 0.15 | 0.00 | 77 | 1013.4 |
| 20260902164846 | 31 | 255 | 11.3 | 22.5 | 0.00 | 0.15 | 0.00 | 77 | 1013.3 |
| 20260902164749 | 31 | 204 | 8.0 | 22.5 | 0.00 | 0.15 | 0.00 | 77 | 1013.4 |
| 20260902164646 | 31 | 264 | 8.0 | 22.5 | 0.00 | 0.15 | 0.00 | 77 | 1013.3 |
| 20260902164545 | 31 | 240 | 11.3 | 22.5 | 0.00 | 0.15 | 0.00 | 78 | 1013.4 |
| 20260902164447 | 31 | 233 | 12.9 | 22.5 | 0.00 | 0.15 | 0.00 | 78 | 1013.3 |
| 20260902164345 | 30 | 247 | 14.5 | 22.5 | 0.00 | 0.15 | 0.00 | 77 | 1013.4 |
| 20260902164246 | 30 | 234 | 12.9 | 22.5 | 0.00 | 0.15 | 0.00 | 78 | 1013.4 |
| 20260902164146 | 30 | 281 | 14.5 | 22.5 | 0.00 | 0.15 | 0.00 | 78 | 1013.4 |
| 20260902164047 | 30 | 209 | 17.7 | 22.5 | 0.00 | 0.15 | 0.00 | 78 | 1013.4 |
| 20260902163947 | 30 | 230 | 16.1 | 22.5 | 0.00 | 0.15 | 0.00 | 78 | 1013.4 |
| 20260902163846 | 30 | 275 | 11.3 | 20.9 | 0.00 | 0.15 | 0.00 | 78 | 1013.5 |
| 20260902163747 | 30 | 250 | 8.0 | 20.9 | 0.00 | 0.15 | 0.00 | 79 | 1013.5 |
| 20260902163646 | 30 | 274 | 9.7 | 20.9 | 0.00 | 0.15 | 0.00 | 79 | 1013.4 |
| 20260902163548 | 30 | 268 | 11.3 | 20.9 | 0.00 | 0.15 | 0.00 | 79 | 1013.4 |
| 20260902163448 | 30 | 324 | 9.7 | 20.9 | 0.00 | 0.15 | 0.00 | 79 | 1013.4 |
| 20260902163347 | 30 | 238 | 9.7 | 20.9 | 0.00 | 0.15 | 0.00 | 79 | 1013.5 |
| 20260902163245 | 30 | 257 | 12.9 | 20.9 | 0.00 | 0.15 | 0.00 | 79 | 1013.5 |
| 20260902163146 | 30 | 286 | 9.7 | 20.9 | 0.00 | 0.15 | 0.00 | 79 | 1013.4 |
| 20260902163047 | 30 | 237 | 8.0 | 20.9 | 0.00 | 0.15 | 0.00 | 79 | 1013.5 |
| 20260902162947 | 30 | 290 | 9.7 | 22.5 | 0.00 | 0.15 | 0.00 | 79 | 1013.5 |
| 20260902162846 | 30 | 344 | 11.3 | 22.5 | 0.00 | 0.15 | 0.00 | 79 | 1013.4 |
| 20260902162747 | 30 | 272 | 14.5 | 22.5 | 0.00 | 0.15 | 0.00 | 79 | 1013.5 |
| 20260902162647 | 30 | 251 | 16.1 | 22.5 | 0.00 | 0.15 | 0.00 | 79 | 1013.6 |
| 20260902162546 | 30 | 251 | 16.1 | 22.5 | 0.00 | 0.15 | 0.00 | 79 | 1013.5 |
| 20260902162447 | 30 | 251 | 16.1 | 22.5 | 0.00 | 0.15 | 0.00 | 79 | 1013.5 |
| 20260902162347 | 30 | 251 | 16.1 | 22.5 | 0.00 | 0.15 | 0.00 | 79 | 1013.5 |
| 20260902162246 | 30 | 251 | 16.1 | 22.5 | 0.00 | 0.15 | 0.00 | 79 | 1013.5 |
| 20260902162133 | 30 | 238 | 16.1 | 22.5 | 0.00 | 0.15 | 0.00 | 79 | 1013.5 |
| 20260902162032 | 30 | 296 | 11.3 | 22.5 | 0.00 | 0.15 | 0.00 | 79 | 1013.5 |
| 20260902161931 | 30 | 314 | 12.9 | 22.5 | 0.00 | 0.15 | 0.00 | 79 | 1013.5 |
| 20260902161831 | 30 | 262 | 14.5 | 22.5 | 0.00 | 0.15 | 0.00 | 79 | 1013.4 |
| 20260902161732 | 30 | 254 | 14.5 | 24.1 | 0.00 | 0.15 | 0.00 | 79 | 1013.4 |
| 20260902161631 | 30 | 278 | 14.5 | 24.1 | 0.00 | 0.15 | 0.00 | 79 | 1013.5 |
| 20260902161532 | 30 | 248 | 12.9 | 24.1 | 0.00 | 0.15 | 0.00 | 79 | 1013.5 |
| 20260902161431 | 30 | 283 | 12.9 | 24.1 | 0.00 | 0.15 | 0.00 | 79 | 1013.4 |
| 20260902161331 | 30 | 209 | 14.5 | 24.1 | 0.00 | 0.15 | 0.00 | 79 | 1013.5 |
| 20260902161232 | 30 | 243 | 12.9 | 24.1 | 0.00 | 0.15 | 0.00 | 79 | 1013.5 |
| 20260902161132 | 30 | 247 | 11.3 | 24.1 | 0.00 | 0.15 | 0.00 | 79 | 1013.4 |
| 20260902161032 | 30 | 300 | 14.5 | 25.7 | 0.00 | 0.15 | 0.00 | 79 | 1013.5 |
| 20260902160931 | 30 | 258 | 14.5 | 25.7 | 0.00 | 0.15 | 0.00 | 79 | 1013.5 |
| 20260902160831 | 30 | 231 | 12.9 | 25.7 | 0.00 | 0.15 | 0.00 | 79 | 1013.5 |
| 20260902160732 | 30 | 281 | 11.3 | 25.7 | 0.00 | 0.15 | 0.00 | 79 | 1013.5 |
| 20260902160632 | 30 | 285 | 11.3 | 25.7 | 0.00 | 0.15 | 0.00 | 80 | 1013.5 |
| 20260902160533 | 30 | 231 | 11.3 | 25.7 | 0.00 | 0.15 | 0.00 | 80 | 1013.5 |
| 20260902160432 | 30 | 247 | 12.9 | 25.7 | 0.00 | 0.15 | 0.00 | 80 | 1013.5 |
| 20260902160332 | 30 | 326 | 12.9 | 25.7 | 0.00 | 0.15 | 0.00 | 80 | 1013.5 |
| 20260902160231 | 30 | 234 | 14.5 | 25.7 | 0.00 | 0.15 | 0.00 | 80 | 1013.4 |
| 20260902160132 | 30 | 252 | 16.1 | 25.7 | 0.00 | 0.15 | 0.00 | 80 | 1013.5 |
| 20260902160032 | 30 | 264 | 14.5 | 22.5 | 0.00 | 0.15 | 0.00 | 80 | 1013.4 |
| 20260902155932 | 30 | 241 | 14.5 | 22.5 | 0.00 | 0.15 | 0.00 | 80 | 1013.4 |
| 20260902155831 | 30 | 269 | 14.5 | 22.5 | 0.00 | 0.15 | 0.00 | 80 | 1013.4 |
| 20260902155730 | 30 | 286 | 14.5 | 22.5 | 0.00 | 0.15 | 0.00 | 80 | 1013.4 |
| 20260902155633 | 30 | 241 | 12.9 | 22.5 | 0.00 | 0.15 | 0.00 | 80 | 1013.5 |
| 20260902155531 | 30 | 268 | 12.9 | 22.5 | 0.00 | 0.15 | 0.00 | 80 | 1013.4 |
| 20260902155431 | 30 | 305 | 11.3 | 22.5 | 0.00 | 0.15 | 0.00 | 81 | 1013.4 |
| 20260902155332 | 30 | 279 | 11.3 | 20.9 | 0.00 | 0.15 | 0.00 | 81 | 1013.3 |
| 20260902155231 | 30 | 299 | 14.5 | 20.9 | 0.00 | 0.15 | 0.00 | 81 | 1013.4 |
| 20260902155131 | 30 | 281 | 9.7 | 20.9 | 0.00 | 0.15 | 0.00 | 81 | 1013.3 |
| 20260902155031 | 30 | 250 | 11.3 | 20.9 | 0.00 | 0.15 | 0.00 | 81 | 1013.3 |
| 20260902154931 | 30 | 276 | 14.5 | 20.9 | 0.00 | 0.15 | 0.00 | 81 | 1013.3 |
| 20260902154832 | 30 | 324 | 12.9 | 19.3 | 0.00 | 0.15 | 0.00 | 81 | 1013.3 |
| 20260902154730 | 30 | 243 | 9.7 | 19.3 | 0.00 | 0.15 | 0.00 | 81 | 1013.3 |
| 20260902154632 | 30 | 247 | 9.7 | 19.3 | 0.00 | 0.15 | 0.00 | 81 | 1013.2 |
| 20260902154532 | 30 | 245 | 8.0 | 19.3 | 0.00 | 0.15 | 0.00 | 82 | 1013.3 |
| 20260902154432 | 30 | 189 | 9.7 | 24.1 | 0.00 | 0.15 | 0.00 | 82 | 1013.3 |
| 20260902154334 | 30 | 203 | 11.3 | 25.7 | 0.00 | 0.15 | 0.00 | 82 | 1013.3 |
| 20260902154232 | 30 | 171 | 11.3 | 25.7 | 0.00 | 0.15 | 0.00 | 82 | 1013.3 |
| 20260902154130 | 30 | 206 | 11.3 | 32.2 | 0.00 | 0.15 | 0.00 | 82 | 1013.3 |
| 20260902154031 | 30 | 203 | 11.3 | 32.2 | 0.00 | 0.15 | 0.00 | 82 | 1013.3 |
| 20260902153932 | 30 | 209 | 9.7 | 32.2 | 0.00 | 0.15 | 0.00 | 82 | 1013.2 |
| 20260902153832 | 30 | 214 | 9.7 | 32.2 | 0.00 | 0.15 | 0.00 | 82 | 1013.3 |
| 20260902153731 | 30 | 245 | 9.7 | 32.2 | 0.00 | 0.15 | 0.00 | 82 | 1013.2 |
| 20260902153632 | 30 | 202 | 14.5 | 32.2 | 0.00 | 0.15 | 0.00 | 82 | 1013.3 |
| 20260902153532 | 29 | 200 | 17.7 | 32.2 | 0.00 | 0.15 | 0.00 | 82 | 1013.3 |
| 20260902153432 | 30 | 213 | 20.9 | 32.2 | 0.00 | 0.15 | 0.00 | 82 | 1013.3 |
| 20260902153331 | 30 | 203 | 19.3 | 32.2 | 0.00 | 0.15 | 0.00 | 82 | 1013.4 |
| 20260902153232 | 30 | 183 | 17.7 | 32.2 | 0.00 | 0.15 | 0.00 | 82 | 1013.3 |
| 20260902153131 | 30 | 169 | 17.7 | 25.7 | 0.00 | 0.15 | 0.00 | 82 | 1013.3 |
| 20260902153031 | 30 | 159 | 16.1 | 25.7 | 0.00 | 0.15 | 0.00 | 82 | 1013.2 |
| 20260902152932 | 30 | 125 | 14.5 | 25.7 | 0.00 | 0.15 | 0.00 | 82 | 1013.3 |
| 20260902152831 | 29 | 145 | 11.3 | 22.5 | 0.00 | 0.15 | 0.00 | 83 | 1013.3 |
| 20260902152731 | 29 | 178 | 8.0 | 22.5 | 0.00 | 0.15 | 0.00 | 82 | 1013.3 |
| 20260902152633 | 29 | 189 | 9.7 | 22.5 | 0.00 | 0.15 | 0.00 | 82 | 1013.2 |
| 20260902152526 | 29 | 188 | 9.7 | 22.5 | 0.00 | 0.15 | 0.00 | 83 | 1013.4 |
| 20260902152424 | 29 | 142 | 9.7 | 24.1 | 0.00 | 0.15 | 0.00 | 83 | 1013.2 |
| 20260902152324 | 29 | 178 | 11.3 | 24.1 | 0.00 | 0.15 | 0.00 | 83 | 1013.3 |
| 20260902152221 | 29 | 173 | 9.7 | 24.1 | 0.00 | 0.15 | 0.00 | 84 | 1013.3 |
| 20260902152121 | 29 | 172 | 11.3 | 24.1 | 0.00 | 0.15 | 0.00 | 84 | 1013.2 |
| 20260902152018 | 29 | 154 | 14.5 | 24.1 | 0.00 | 0.15 | 0.00 | 84 | 1013.2 |
| 20260902151918 | 29 | 168 | 14.5 | 27.4 | 0.00 | 0.15 | 0.00 | 84 | 1013.2 |
| 20260902151815 | 29 | 155 | 12.9 | 29.0 | 0.00 | 0.15 | 0.00 | 84 | 1013.3 |
| 20260902151714 | 29 | 152 | 14.5 | 30.6 | 0.00 | 0.15 | 0.00 | 84 | 1013.2 |
| 20260902151609 | 29 | 161 | 14.5 | 30.6 | 0.00 | 0.15 | 0.00 | 84 | 1013.2 |
| 20260902151509 | 29 | 168 | 14.5 | 30.6 | 0.00 | 0.15 | 0.00 | 84 | 1013.3 |
| 20260902151406 | 29 | 173 | 14.5 | 30.6 | 0.00 | 0.15 | 0.00 | 84 | 1013.3 |
| 20260902151305 | 29 | 149 | 8.0 | 30.6 | 0.00 | 0.15 | 0.00 | 84 | 1013.2 |
| 20260902151205 | 29 | 179 | 16.1 | 30.6 | 0.00 | 0.15 | 0.00 | 84 | 1013.3 |
| 20260902151103 | 29 | 179 | 16.1 | 30.6 | 0.00 | 0.15 | 0.00 | 84 | 1013.3 |
| 20260902150959 | 29 | 0 | 19.3 | 30.6 | 0.00 | 0.15 | 0.00 | 84 | 1013.3 |
| 20260902150857 | 29 | 224 | 17.7 | 30.6 | 0.00 | 0.15 | 0.00 | 85 | 1013.2 |
| 20260902150757 | 29 | 219 | 14.5 | 25.7 | 0.00 | 0.15 | 0.00 | 85 | 1013.2 |
| 20260902150654 | 29 | 224 | 11.3 | 27.4 | 0.00 | 0.15 | 0.00 | 85 | 1013.3 |
| 20260902150552 | 29 | 293 | 12.9 | 27.4 | 0.00 | 0.15 | 0.00 | 85 | 1013.3 |
| 20260902150453 | 29 | 299 | 16.1 | 27.4 | 0.00 | 0.15 | 0.00 | 86 | 1013.2 |
| 20260902150348 | 29 | 272 | 17.7 | 27.4 | 0.00 | 0.15 | 0.00 | 85 | 1013.2 |
| 20260902150247 | 29 | 238 | 17.7 | 27.4 | 0.00 | 0.15 | 0.00 | 86 | 1013.3 |
| 20260902150146 | 29 | 237 | 16.1 | 27.4 | 0.00 | 0.15 | 0.00 | 86 | 1013.2 |
| 20260902150048 | 29 | 224 | 17.7 | 27.4 | 0.00 | 0.15 | 0.00 | 86 | 1013.2 |
| 20260902145944 | 29 | 235 | 16.1 | 27.4 | 0.00 | 0.15 | 0.00 | 86 | 1013.2 |
| 20260902145843 | 28 | 250 | 17.7 | 27.4 | 0.00 | 0.15 | 0.00 | 86 | 1013.2 |
| 20260902145743 | 28 | 235 | 17.7 | 27.4 | 0.00 | 0.15 | 0.00 | 86 | 1013.1 |
| 20260902145645 | 28 | 224 | 12.9 | 25.7 | 0.00 | 0.15 | 0.00 | 86 | 1013.2 |
| 20260902145543 | 28 | 259 | 12.9 | 25.7 | 0.00 | 0.15 | 0.00 | 86 | 1013.1 |
| 20260902145444 | 28 | 248 | 16.1 | 25.7 | 0.00 | 0.15 | 0.00 | 86 | 1013.3 |
| 20260902145345 | 28 | 278 | 14.5 | 25.7 | 0.00 | 0.15 | 0.00 | 86 | 1013.2 |
| 20260902145243 | 28 | 251 | 11.3 | 25.7 | 0.00 | 0.15 | 0.00 | 86 | 1013.2 |
| 20260902145143 | 28 | 227 | 11.3 | 24.1 | 0.00 | 0.15 | 0.00 | 87 | 1013.1 |
| 20260902145043 | 28 | 259 | 12.9 | 24.1 | 0.00 | 0.15 | 0.00 | 87 | 1013.1 |
| 20260902144945 | 28 | 255 | 12.9 | 24.1 | 0.00 | 0.15 | 0.00 | 87 | 1013.1 |
| 20260902144844 | 28 | 227 | 14.5 | 24.1 | 0.00 | 0.15 | 0.00 | 87 | 1013.1 |
| 20260902144743 | 28 | 202 | 14.5 | 24.1 | 0.00 | 0.15 | 0.00 | 87 | 1013.2 |
| 20260902144644 | 28 | 212 | 11.3 | 22.5 | 0.00 | 0.15 | 0.00 | 87 | 1013.1 |
| 20260902144544 | 28 | 272 | 11.3 | 22.5 | 0.00 | 0.15 | 0.00 | 87 | 1013.1 |
| 20260902144443 | 28 | 261 | 11.3 | 20.9 | 0.00 | 0.15 | 0.00 | 87 | 1013.2 |
| 20260902144343 | 28 | 262 | 12.9 | 20.9 | 0.00 | 0.15 | 0.00 | 88 | 1013.2 |
| 20260902144246 | 28 | 251 | 14.5 | 20.9 | 0.00 | 0.15 | 0.00 | 87 | 1013.2 |
| 20260902144143 | 28 | 264 | 9.7 | 17.7 | 0.00 | 0.15 | 0.00 | 88 | 1013.2 |
| 20260902144043 | 28 | 255 | 6.4 | 17.7 | 0.00 | 0.15 | 0.00 | 88 | 1013.2 |
| 20260902143945 | 28 | 235 | 8.0 | 17.7 | 0.00 | 0.15 | 0.00 | 88 | 1013.2 |
| 20260902143843 | 28 | 279 | 9.7 | 17.7 | 0.00 | 0.15 | 0.00 | 88 | 1013.2 |
| 20260902143745 | 28 | 265 | 9.7 | 17.7 | 0.00 | 0.15 | 0.00 | 88 | 1013.2 |
| 20260902143645 | 28 | 235 | 11.3 | 17.7 | 0.00 | 0.15 | 0.00 | 88 | 1013.2 |
| 20260902143543 | 28 | 217 | 11.3 | 17.7 | 0.00 | 0.15 | 0.00 | 88 | 1013.2 |
| 20260902143444 | 28 | 235 | 9.7 | 17.7 | 0.00 | 0.15 | 0.00 | 88 | 1013.2 |
| 20260902143343 | 28 | 296 | 9.7 | 20.9 | 0.00 | 0.15 | 0.00 | 88 | 1013.3 |
| 20260902143244 | 28 | 244 | 8.0 | 20.9 | 0.00 | 0.15 | 0.00 | 88 | 1013.1 |
| 20260902143144 | 28 | 288 | 8.0 | 20.9 | 0.00 | 0.15 | 0.00 | 89 | 1013.1 |
| 20260902143044 | 28 | 213 | 9.7 | 20.9 | 0.00 | 0.15 | 0.00 | 89 | 1013.1 |
| 20260902142943 | 28 | 255 | 9.7 | 20.9 | 0.00 | 0.15 | 0.00 | 89 | 1013.1 |
| 20260902142844 | 28 | 212 | 9.7 | 20.9 | 0.00 | 0.15 | 0.00 | 89 | 1013.1 |
| 20260902142743 | 28 | 250 | 9.7 | 20.9 | 0.00 | 0.15 | 0.00 | 89 | 1013.1 |
| 20260902142645 | 28 | 247 | 11.3 | 20.9 | 0.00 | 0.15 | 0.00 | 89 | 1013.1 |
| 20260902142544 | 28 | 247 | 11.3 | 20.9 | 0.00 | 0.15 | 0.00 | 89 | 1013.2 |
| 20260902142443 | 28 | 238 | 11.3 | 20.9 | 0.00 | 0.15 | 0.00 | 89 | 1013.1 |
| 20260902142343 | 28 | 188 | 11.3 | 20.9 | 0.00 | 0.15 | 0.00 | 89 | 1013.2 |
| 20260902142244 | 28 | 262 | 9.7 | 20.9 | 0.00 | 0.15 | 0.00 | 89 | 1013.1 |
| 20260902142143 | 28 | 278 | 9.7 | 20.9 | 0.00 | 0.15 | 0.00 | 89 | 1013.2 |
| 20260902142043 | 28 | 254 | 9.7 | 20.9 | 0.00 | 0.15 | 0.00 | 89 | 1013.1 |
| 20260902141942 | 28 | 251 | 11.3 | 20.9 | 0.00 | 0.15 | 0.00 | 89 | 1013.1 |
| 20260902141845 | 28 | 259 | 11.3 | 20.9 | 0.00 | 0.15 | 0.00 | 89 | 1013.1 |
| 20260902141744 | 28 | 223 | 12.9 | 20.9 | 0.00 | 0.15 | 0.00 | 89 | 1013.1 |
| 20260902141643 | 28 | 221 | 11.3 | 20.9 | 0.00 | 0.15 | 0.00 | 89 | 1013.2 |
| 20260902141543 | 28 | 207 | 9.7 | 20.9 | 0.00 | 0.15 | 0.00 | 89 | 1013.1 |
| 20260902141443 | 28 | 223 | 9.7 | 20.9 | 0.00 | 0.15 | 0.00 | 89 | 1013.2 |
| 20260902141343 | 28 | 227 | 8.0 | 20.9 | 0.00 | 0.15 | 0.00 | 89 | 1013.2 |
| 20260902141242 | 28 | 255 | 9.7 | 20.9 | 0.00 | 0.15 | 0.00 | 89 | 1013.0 |
| 20260902141143 | 28 | 272 | 9.7 | 22.5 | 0.00 | 0.15 | 0.00 | 89 | 1013.1 |
| 20260902141042 | 28 | 252 | 11.3 | 22.5 | 0.00 | 0.15 | 0.00 | 89 | 1013.2 |
| 20260902140942 | 28 | 237 | 12.9 | 22.5 | 0.00 | 0.15 | 0.00 | 89 | 1013.1 |
| 20260902140845 | 28 | 252 | 14.5 | 22.5 | 0.00 | 0.15 | 0.00 | 89 | 1013.0 |
| 20260902140743 | 28 | 221 | 12.9 | 22.5 | 0.00 | 0.15 | 0.00 | 89 | 1013.1 |
| 20260902140644 | 28 | 221 | 11.3 | 22.5 | 0.00 | 0.15 | 0.00 | 89 | 1013.1 |
| 20260902140543 | 28 | 247 | 11.3 | 22.5 | 0.00 | 0.15 | 0.00 | 89 | 1013.0 |
| 20260902140443 | 28 | 241 | 11.3 | 22.5 | 0.00 | 0.15 | 0.00 | 89 | 1013.1 |
| 20260902140343 | 28 | 243 | 14.5 | 22.5 | 0.00 | 0.15 | 0.00 | 89 | 1013.0 |
| 20260902140244 | 28 | 299 | 16.1 | 22.5 | 0.00 | 0.15 | 0.00 | 89 | 1013.1 |
| 20260902140144 | 28 | 210 | 14.5 | 22.5 | 0.00 | 0.15 | 0.00 | 89 | 1013.0 |
| 20260902140042 | 28 | 269 | 12.9 | 22.5 | 0.00 | 0.15 | 0.00 | 89 | 1013.1 |
| 20260902135942 | 28 | 247 | 9.7 | 22.5 | 0.00 | 0.15 | 0.00 | 89 | 1013.1 |
| 20260902135842 | 28 | 228 | 11.3 | 22.5 | 0.00 | 0.15 | 0.00 | 89 | 1013.1 |
| 20260902135744 | 28 | 219 | 12.9 | 22.5 | 0.00 | 0.15 | 0.00 | 89 | 1013.0 |
| 20260902135643 | 28 | 238 | 12.9 | 22.5 | 0.00 | 0.15 | 0.00 | 89 | 1013.0 |
| 20260902135542 | 28 | 288 | 11.3 | 19.3 | 0.00 | 0.15 | 0.00 | 89 | 1013.1 |
| 20260902135443 | 28 | 227 | 9.7 | 19.3 | 0.00 | 0.15 | 0.00 | 89 | 1013.1 |
| 20260902135345 | 28 | 259 | 9.7 | 19.3 | 0.00 | 0.15 | 0.00 | 89 | 1013.1 |
| 20260902135242 | 28 | 226 | 9.7 | 19.3 | 0.00 | 0.15 | 0.00 | 90 | 1013.1 |
| 20260902135142 | 28 | 283 | 8.0 | 19.3 | 0.00 | 0.15 | 0.00 | 90 | 1013.0 |
| 20260902135044 | 28 | 279 | 9.7 | 19.3 | 0.00 | 0.15 | 0.00 | 90 | 1013.0 |
| 20260902134942 | 27 | 240 | 11.3 | 19.3 | 0.00 | 0.15 | 0.00 | 90 | 1013.0 |
| 20260902134842 | 27 | 240 | 11.3 | 19.3 | 0.00 | 0.15 | 0.00 | 90 | 1013.1 |
| 20260902134744 | 27 | 238 | 11.3 | 19.3 | 0.00 | 0.15 | 0.00 | 90 | 1013.0 |
| 20260902134641 | 27 | 230 | 11.3 | 19.3 | 0.00 | 0.15 | 0.00 | 90 | 1013.0 |
| 20260902134543 | 27 | 268 | 11.3 | 19.3 | 0.00 | 0.15 | 0.00 | 90 | 1013.0 |
| 20260902134443 | 27 | 245 | 11.3 | 19.3 | 0.00 | 0.15 | 0.00 | 90 | 1013.0 |
| 20260902134343 | 27 | 235 | 11.3 | 19.3 | 0.00 | 0.15 | 0.00 | 90 | 1013.0 |
| 20260902134242 | 27 | 293 | 11.3 | 19.3 | 0.00 | 0.15 | 0.00 | 90 | 1013.0 |
| 20260902134141 | 27 | 309 | 11.3 | 19.3 | 0.00 | 0.15 | 0.00 | 90 | 1013.0 |
| 20260902134043 | 27 | 244 | 11.3 | 20.9 | 0.00 | 0.15 | 0.00 | 90 | 1013.0 |
| 20260902133942 | 27 | 227 | 12.9 | 20.9 | 0.00 | 0.15 | 0.00 | 90 | 1013.0 |
| 20260902133842 | 27 | 231 | 9.7 | 24.1 | 0.00 | 0.15 | 0.00 | 90 | 1013.0 |
| 20260902133743 | 27 | 228 | 9.7 | 24.1 | 0.00 | 0.15 | 0.00 | 90 | 1013.0 |
| 20260902133642 | 27 | 281 | 9.7 | 24.1 | 0.00 | 0.15 | 0.00 | 90 | 1013.1 |
| 20260902133541 | 27 | 237 | 9.7 | 24.1 | 0.00 | 0.15 | 0.00 | 90 | 1013.0 |
| 20260902133442 | 27 | 237 | 9.7 | 24.1 | 0.00 | 0.15 | 0.00 | 91 | 1013.1 |
| 20260902133342 | 27 | 235 | 9.7 | 24.1 | 0.00 | 0.15 | 0.00 | 91 | 1013.1 |
| 20260902133243 | 27 | 264 | 11.3 | 24.1 | 0.00 | 0.15 | 0.00 | 90 | 1013.1 |
| 20260902133142 | 27 | 285 | 14.5 | 24.1 | 0.00 | 0.15 | 0.00 | 90 | 1013.0 |
| 20260902133042 | 27 | 268 | 16.1 | 24.1 | 0.00 | 0.15 | 0.00 | 90 | 1013.0 |
| 20260902132943 | 27 | 203 | 12.9 | 24.1 | 0.00 | 0.15 | 0.00 | 91 | 1013.0 |
| 20260902132841 | 27 | 262 | 11.3 | 17.7 | 0.00 | 0.15 | 0.00 | 91 | 1013.0 |
| 20260902132741 | 27 | 266 | 9.7 | 17.7 | 0.00 | 0.15 | 0.00 | 91 | 1013.0 |
| 20260902132643 | 27 | 234 | 9.7 | 17.7 | 0.00 | 0.15 | 0.00 | 91 | 1012.9 |
| 20260902132541 | 27 | 207 | 11.3 | 17.7 | 0.00 | 0.15 | 0.00 | 91 | 1012.9 |
| 20260902132441 | 27 | 224 | 11.3 | 17.7 | 0.00 | 0.15 | 0.00 | 91 | 1012.9 |
| 20260902132342 | 27 | 231 | 11.3 | 17.7 | 0.00 | 0.15 | 0.00 | 91 | 1012.9 |
| 20260902132242 | 27 | 188 | 11.3 | 17.7 | 0.00 | 0.15 | 0.00 | 91 | 1012.8 |
| 20260902132141 | 27 | 244 | 11.3 | 17.7 | 0.00 | 0.15 | 0.00 | 91 | 1012.9 |
| 20260902132041 | 27 | 210 | 9.7 | 17.7 | 0.00 | 0.15 | 0.00 | 91 | 1012.8 |
| 20260902131942 | 27 | 247 | 9.7 | 17.7 | 0.00 | 0.15 | 0.00 | 91 | 1012.8 |
| 20260902131841 | 27 | 223 | 11.3 | 17.7 | 0.00 | 0.15 | 0.00 | 91 | 1012.8 |
| 20260902131741 | 27 | 240 | 9.7 | 17.7 | 0.00 | 0.15 | 0.00 | 91 | 1012.8 |
| 20260902131641 | 27 | 245 | 9.7 | 17.7 | 0.00 | 0.15 | 0.00 | 91 | 1012.8 |
| 20260902131541 | 27 | 219 | 9.7 | 22.5 | 0.00 | 0.15 | 0.00 | 91 | 1012.8 |
| 20260902131441 | 27 | 219 | 11.3 | 22.5 | 0.00 | 0.15 | 0.00 | 91 | 1012.8 |
| 20260902131341 | 27 | 235 | 11.3 | 22.5 | 0.00 | 0.15 | 0.00 | 91 | 1012.8 |
| 20260902131242 | 27 | 219 | 9.7 | 22.5 | 0.00 | 0.15 | 0.00 | 91 | 1012.8 |
| 20260902131141 | 27 | 244 | 11.3 | 22.5 | 0.00 | 0.15 | 0.00 | 91 | 1012.8 |
| 20260902131041 | 27 | 216 | 11.3 | 22.5 | 0.00 | 0.15 | 0.00 | 91 | 1012.7 |
| 20260902130942 | 27 | 238 | 11.3 | 22.5 | 0.00 | 0.15 | 0.00 | 91 | 1012.7 |
| 20260902130842 | 27 | 234 | 9.7 | 22.5 | 0.00 | 0.15 | 0.00 | 91 | 1012.7 |
| 20260902130741 | 27 | 247 | 12.9 | 22.5 | 0.00 | 0.15 | 0.00 | 91 | 1012.6 |
| 20260902130641 | 27 | 228 | 14.5 | 22.5 | 0.00 | 0.15 | 0.00 | 91 | 1012.6 |
| 20260902130543 | 27 | 248 | 12.9 | 20.9 | 0.00 | 0.15 | 0.00 | 91 | 1012.7 |
| 20260902130440 | 27 | 234 | 11.3 | 19.3 | 0.00 | 0.15 | 0.00 | 91 | 1012.7 |
| 20260902130341 | 27 | 234 | 9.7 | 19.3 | 0.00 | 0.15 | 0.00 | 91 | 1012.7 |
| 20260902130243 | 27 | 255 | 9.7 | 16.1 | 0.00 | 0.15 | 0.00 | 91 | 1012.7 |
| 20260902130141 | 27 | 219 | 8.0 | 16.1 | 0.00 | 0.15 | 0.00 | 91 | 1012.7 |
| 20260902130041 | 27 | 282 | 9.7 | 16.1 | 0.00 | 0.15 | 0.00 | 91 | 1012.7 |
| 20260902125941 | 27 | 224 | 9.7 | 16.1 | 0.00 | 0.15 | 0.00 | 91 | 1012.7 |
| 20260902125843 | 27 | 243 | 11.3 | 19.3 | 0.00 | 0.15 | 0.00 | 91 | 1012.7 |
| 20260902125742 | 27 | 238 | 11.3 | 20.9 | 0.00 | 0.15 | 0.00 | 91 | 1012.7 |
| 20260902125641 | 27 | 258 | 11.3 | 20.9 | 0.00 | 0.15 | 0.00 | 91 | 1012.8 |
| 20260902125542 | 27 | 231 | 11.3 | 20.9 | 0.00 | 0.15 | 0.00 | 91 | 1012.7 |
| 20260902125441 | 27 | 258 | 9.7 | 20.9 | 0.00 | 0.15 | 0.00 | 91 | 1012.7 |
| 20260902125341 | 27 | 266 | 9.7 | 20.9 | 0.00 | 0.15 | 0.00 | 92 | 1012.7 |
| 20260902125242 | 27 | 230 | 8.0 | 20.9 | 0.00 | 0.15 | 0.00 | 91 | 1012.7 |
| 20260902125142 | 27 | 276 | 9.7 | 20.9 | 0.00 | 0.15 | 0.00 | 92 | 1012.7 |
| 20260902125041 | 27 | 213 | 12.9 | 20.9 | 0.00 | 0.15 | 0.00 | 91 | 1012.7 |
| 20260902124939 | 27 | 223 | 14.5 | 20.9 | 0.00 | 0.15 | 0.00 | 91 | 1012.6 |
| 20260902124839 | 27 | 227 | 12.9 | 22.5 | 0.00 | 0.15 | 0.00 | 91 | 1012.5 |
| 20260902124736 | 27 | 220 | 11.3 | 22.5 | 0.00 | 0.15 | 0.00 | 91 | 1012.5 |
| 20260902124635 | 27 | 268 | 12.9 | 22.5 | 0.00 | 0.15 | 0.00 | 91 | 1012.5 |
| 20260902124533 | 27 | 240 | 11.3 | 22.5 | 0.00 | 0.15 | 0.00 | 91 | 1012.4 |
| 20260902124431 | 27 | 243 | 11.3 | 22.5 | 0.00 | 0.15 | 0.00 | 91 | 1012.5 |
| 20260902124331 | 27 | 230 | 12.9 | 24.1 | 0.00 | 0.15 | 0.00 | 91 | 1012.5 |
| 20260902124231 | 27 | 261 | 14.5 | 24.1 | 0.00 | 0.15 | 0.00 | 91 | 1012.4 |
| 20260902124128 | 27 | 247 | 12.9 | 24.1 | 0.00 | 0.15 | 0.00 | 91 | 1012.4 |
| 20260902124026 | 27 | 257 | 14.5 | 24.1 | 0.00 | 0.15 | 0.00 | 91 | 1012.5 |
| 20260902123925 | 27 | 271 | 14.5 | 24.1 | 0.00 | 0.15 | 0.00 | 91 | 1012.4 |
| 20260902123823 | 27 | 278 | 14.5 | 24.1 | 0.00 | 0.15 | 0.00 | 91 | 1012.5 |
| 20260902123722 | 27 | 220 | 14.5 | 24.1 | 0.00 | 0.15 | 0.00 | 91 | 1012.4 |
| 20260902123620 | 27 | 235 | 16.1 | 24.1 | 0.00 | 0.15 | 0.00 | 91 | 1012.4 |
| 20260902123518 | 27 | 214 | 17.7 | 24.1 | 0.00 | 0.15 | 0.00 | 91 | 1012.4 |
| 20260902123417 | 27 | 248 | 14.5 | 24.1 | 0.00 | 0.15 | 0.00 | 91 | 1012.4 |
| 20260902123315 | 27 | 234 | 14.5 | 24.1 | 0.00 | 0.15 | 0.00 | 91 | 1012.4 |
| 20260902123215 | 27 | 233 | 14.5 | 24.1 | 0.00 | 0.15 | 0.00 | 91 | 1012.4 |
| 20260902123113 | 27 | 244 | 14.5 | 24.1 | 0.00 | 0.15 | 0.00 | 91 | 1012.4 |
| 20260902123011 | 27 | 234 | 14.5 | 24.1 | 0.00 | 0.15 | 0.00 | 91 | 1012.4 |
| 20260902122909 | 27 | 257 | 12.9 | 22.5 | 0.00 | 0.15 | 0.00 | 91 | 1012.4 |
| 20260902122808 | 27 | 231 | 12.9 | 22.5 | 0.00 | 0.15 | 0.00 | 91 | 1012.3 |
| 20260902122707 | 27 | 288 | 11.3 | 22.5 | 0.00 | 0.15 | 0.00 | 91 | 1012.3 |
| 20260902122605 | 27 | 290 | 11.3 | 22.5 | 0.00 | 0.15 | 0.00 | 91 | 1012.2 |
| 20260902122503 | 27 | 264 | 12.9 | 22.5 | 0.00 | 0.15 | 0.00 | 91 | 1012.1 |
| 20260902122403 | 27 | 244 | 11.3 | 22.5 | 0.00 | 0.15 | 0.00 | 91 | 1012.1 |
| 20260902122305 | 27 | 248 | 9.7 | 22.5 | 0.00 | 0.15 | 0.00 | 91 | 1012.0 |
| 20260902122202 | 27 | 264 | 9.7 | 22.5 | 0.00 | 0.15 | 0.00 | 91 | 1012.0 |
| 20260902122102 | 27 | 288 | 9.7 | 22.5 | 0.00 | 0.15 | 0.00 | 91 | 1012.0 |
| 20260902122002 | 27 | 230 | 11.3 | 22.5 | 0.00 | 0.15 | 0.00 | 91 | 1011.9 |
| 20260902121903 | 27 | 227 | 12.9 | 22.5 | 0.00 | 0.15 | 0.00 | 91 | 1011.9 |
| 20260902121802 | 27 | 233 | 14.5 | 22.5 | 0.00 | 0.15 | 0.00 | 91 | 1011.8 |
| 20260902121702 | 27 | 247 | 14.5 | 22.5 | 0.00 | 0.15 | 0.00 | 91 | 1011.8 |
| 20260902121602 | 27 | 248 | 12.9 | 22.5 | 0.00 | 0.15 | 0.00 | 91 | 1011.7 |
| 20260902121504 | 27 | 233 | 12.9 | 22.5 | 0.00 | 0.15 | 0.00 | 91 | 1011.7 |
| 20260902121403 | 27 | 282 | 14.5 | 22.5 | 0.00 | 0.15 | 0.00 | 91 | 1011.7 |
| 20260902121302 | 27 | 251 | 12.9 | 20.9 | 0.00 | 0.15 | 0.00 | 91 | 1011.6 |
| 20260902121204 | 27 | 250 | 11.3 | 20.9 | 0.00 | 0.15 | 0.00 | 91 | 1011.5 |
| 20260902121103 | 27 | 245 | 11.3 | 20.9 | 0.00 | 0.15 | 0.00 | 91 | 1011.5 |
| 20260902121004 | 27 | 255 | 14.5 | 20.9 | 0.00 | 0.15 | 0.00 | 91 | 1011.4 |
| 20260902120904 | 27 | 234 | 14.5 | 20.9 | 0.00 | 0.15 | 0.00 | 91 | 1011.5 |
| 20260902120803 | 27 | 220 | 12.9 | 25.7 | 0.00 | 0.15 | 0.00 | 91 | 1011.4 |
| 20260902120702 | 27 | 248 | 11.3 | 25.7 | 0.00 | 0.15 | 0.00 | 91 | 1011.3 |
| 20260902120602 | 27 | 223 | 12.9 | 27.4 | 0.00 | 0.15 | 0.00 | 91 | 1011.4 |
| 20260902120504 | 27 | 233 | 12.9 | 27.4 | 0.00 | 0.15 | 0.00 | 91 | 1011.3 |
| 20260902120402 | 27 | 258 | 12.9 | 27.4 | 0.00 | 0.15 | 0.00 | 91 | 1011.3 |
| 20260902120302 | 27 | 250 | 12.9 | 27.4 | 0.00 | 0.15 | 0.00 | 91 | 1011.3 |
| 20260902120203 | 27 | 219 | 14.5 | 27.4 | 0.00 | 0.15 | 0.00 | 91 | 1011.3 |
| 20260902120002 | 27 | 252 | 17.7 | 27.4 | 0.00 | 0.15 | 0.00 | 91 | 1011.3 |
| 20260902115902 | 27 | 214 | 17.7 | 27.4 | 0.00 | 0.15 | 0.00 | 91 | 1011.2 |
| 20260902115804 | 27 | 219 | 17.7 | 27.4 | 0.00 | 0.15 | 0.00 | 91 | 1011.3 |
| 20260902115703 | 27 | 255 | 17.7 | 27.4 | 0.00 | 0.15 | 0.00 | 91 | 1011.3 |
| 20260902115602 | 27 | 233 | 17.7 | 25.7 | 0.00 | 0.15 | 0.00 | 91 | 1011.2 |
| 20260902115503 | 27 | 230 | 17.7 | 25.7 | 0.00 | 0.15 | 0.00 | 91 | 1011.3 |
| 20260902115402 | 27 | 217 | 17.7 | 25.7 | 0.00 | 0.15 | 0.00 | 91 | 1011.3 |
| 20260902115306 | 27 | 224 | 16.1 | 22.5 | 0.00 | 0.15 | 0.00 | 91 | 1011.2 |
| 20260902115202 | 27 | 223 | 14.5 | 20.9 | 0.00 | 0.15 | 0.00 | 91 | 1011.2 |
| 20260902115103 | 27 | 224 | 16.1 | 20.9 | 0.00 | 0.15 | 0.00 | 91 | 1011.2 |
| 20260902115002 | 27 | 241 | 16.1 | 20.9 | 0.00 | 0.15 | 0.00 | 91 | 1011.3 |
| 20260902114902 | 27 | 199 | 12.9 | 22.5 | 0.00 | 0.15 | 0.00 | 91 | 1011.3 |
| 20260902114804 | 27 | 226 | 11.3 | 22.5 | 0.00 | 0.15 | 0.00 | 91 | 1011.3 |
| 20260902114703 | 27 | 247 | 12.9 | 22.5 | 0.00 | 0.15 | 0.00 | 91 | 1011.3 |
| 20260902114603 | 27 | 252 | 12.9 | 22.5 | 0.00 | 0.15 | 0.00 | 91 | 1011.3 |
| 20260902114503 | 27 | 230 | 12.9 | 22.5 | 0.00 | 0.15 | 0.00 | 91 | 1011.3 |
| 20260902114402 | 27 | 216 | 14.5 | 22.5 | 0.00 | 0.15 | 0.00 | 91 | 1011.3 |
| 20260902114302 | 27 | 234 | 12.9 | 22.5 | 0.00 | 0.15 | 0.00 | 91 | 1011.3 |
| 20260902114202 | 27 | 271 | 12.9 | 22.5 | 0.00 | 0.15 | 0.00 | 91 | 1011.2 |
| 20260902114104 | 27 | 238 | 14.5 | 22.5 | 0.00 | 0.15 | 0.00 | 91 | 1011.3 |
| 20260902114002 | 27 | 255 | 16.1 | 22.5 | 0.00 | 0.15 | 0.00 | 91 | 1011.2 |
| 20260902113902 | 27 | 233 | 12.9 | 22.5 | 0.00 | 0.15 | 0.00 | 91 | 1011.2 |
| 20260902113803 | 27 | 233 | 11.3 | 19.3 | 0.00 | 0.15 | 0.00 | 91 | 1011.3 |
| 20260902113702 | 27 | 237 | 11.3 | 22.5 | 0.00 | 0.15 | 0.00 | 91 | 1011.3 |
| 20260902113602 | 27 | 262 | 12.9 | 22.5 | 0.00 | 0.15 | 0.00 | 91 | 1011.4 |
| 20260902113503 | 27 | 234 | 12.9 | 22.5 | 0.00 | 0.15 | 0.00 | 91 | 1011.4 |
| 20260902113403 | 27 | 220 | 12.9 | 22.5 | 0.00 | 0.15 | 0.00 | 91 | 1011.3 |
| 20260902113303 | 27 | 258 | 12.9 | 24.1 | 0.00 | 0.15 | 0.00 | 91 | 1011.4 |
| 20260902113202 | 27 | 238 | 9.7 | 24.1 | 0.00 | 0.15 | 0.00 | 91 | 1011.3 |
| 20260902113104 | 27 | 250 | 11.3 | 24.1 | 0.00 | 0.15 | 0.00 | 91 | 1011.3 |
| 20260902113003 | 27 | 241 | 11.3 | 25.7 | 0.00 | 0.15 | 0.00 | 91 | 1011.4 |
| 20260902112903 | 27 | 261 | 12.9 | 25.7 | 0.00 | 0.15 | 0.00 | 91 | 1011.3 |
| 20260902112803 | 27 | 248 | 14.5 | 25.7 | 0.00 | 0.15 | 0.00 | 91 | 1011.4 |
| 20260902112703 | 27 | 238 | 14.5 | 25.7 | 0.00 | 0.15 | 0.00 | 91 | 1011.3 |
| 20260902112602 | 27 | 259 | 16.1 | 25.7 | 0.00 | 0.15 | 0.00 | 90 | 1011.3 |
| 20260902112502 | 27 | 228 | 16.1 | 25.7 | 0.00 | 0.15 | 0.00 | 90 | 1011.4 |
| 20260902112403 | 27 | 247 | 14.5 | 25.7 | 0.00 | 0.15 | 0.00 | 90 | 1011.3 |
| 20260902112305 | 27 | 224 | 14.5 | 25.7 | 0.00 | 0.15 | 0.00 | 90 | 1011.3 |
| 20260902112201 | 27 | 240 | 14.5 | 25.7 | 0.00 | 0.15 | 0.00 | 90 | 1011.3 |
| 20260902112103 | 27 | 212 | 16.1 | 25.7 | 0.00 | 0.15 | 0.00 | 90 | 1011.3 |
| 20260902112004 | 27 | 238 | 16.1 | 24.1 | 0.00 | 0.15 | 0.00 | 90 | 1011.3 |
| 20260902111902 | 27 | 248 | 12.9 | 24.1 | 0.00 | 0.15 | 0.00 | 90 | 1011.3 |
| 20260902111801 | 27 | 230 | 12.9 | 24.1 | 0.00 | 0.15 | 0.00 | 90 | 1011.3 |
| 20260902111703 | 27 | 234 | 14.5 | 24.1 | 0.00 | 0.15 | 0.00 | 90 | 1011.3 |
| 20260902111602 | 27 | 213 | 14.5 | 24.1 | 0.00 | 0.15 | 0.00 | 90 | 1011.3 |
| 20260902111502 | 27 | 235 | 16.1 | 22.5 | 0.00 | 0.15 | 0.00 | 90 | 1011.3 |
| 20260902111403 | 27 | 214 | 16.1 | 22.5 | 0.00 | 0.15 | 0.00 | 90 | 1011.3 |
| 20260902111303 | 27 | 217 | 14.5 | 19.3 | 0.00 | 0.15 | 0.00 | 90 | 1011.3 |
| 20260902111201 | 27 | 244 | 14.5 | 19.3 | 0.00 | 0.15 | 0.00 | 90 | 1011.3 |
| 20260902111103 | 27 | 228 | 14.5 | 19.3 | 0.00 | 0.15 | 0.00 | 90 | 1011.2 |
| 20260902111003 | 27 | 243 | 12.9 | 19.3 | 0.00 | 0.15 | 0.00 | 90 | 1011.2 |
| 20260902110902 | 27 | 234 | 12.9 | 22.5 | 0.00 | 0.15 | 0.00 | 90 | 1011.2 |
| 20260902110802 | 27 | 241 | 11.3 | 22.5 | 0.00 | 0.15 | 0.00 | 90 | 1011.3 |
| 20260902110703 | 27 | 226 | 12.9 | 22.5 | 0.00 | 0.15 | 0.00 | 90 | 1011.2 |
| 20260902110602 | 27 | 261 | 12.9 | 22.5 | 0.00 | 0.15 | 0.00 | 90 | 1011.2 |
| 20260902110502 | 27 | 244 | 12.9 | 22.5 | 0.00 | 0.15 | 0.00 | 90 | 1011.1 |
| 20260902110403 | 27 | 258 | 12.9 | 22.5 | 0.00 | 0.15 | 0.00 | 90 | 1011.1 |
| 20260902110301 | 27 | 223 | 11.3 | 22.5 | 0.00 | 0.15 | 0.00 | 90 | 1011.2 |
| 20260902110203 | 27 | 206 | 12.9 | 25.7 | 0.00 | 0.15 | 0.00 | 90 | 1011.2 |
| 20260902110005 | 27 | 235 | 14.5 | 25.7 | 0.00 | 0.15 | 0.00 | 90 | 1011.1 |
| 20260902105902 | 27 | 237 | 11.3 | 25.7 | 0.00 | 0.15 | 0.00 | 90 | 1011.2 |
| 20260902105802 | 27 | 233 | 11.3 | 25.7 | 0.00 | 0.15 | 0.00 | 90 | 1011.2 |
| 20260902105703 | 27 | 240 | 11.3 | 25.7 | 0.00 | 0.15 | 0.00 | 90 | 1011.2 |
| 20260902105602 | 27 | 258 | 14.5 | 25.7 | 0.00 | 0.15 | 0.00 | 90 | 1011.1 |
| 20260902105503 | 27 | 213 | 14.5 | 25.7 | 0.00 | 0.15 | 0.00 | 90 | 1011.2 |
| 20260902105402 | 27 | 216 | 16.1 | 30.6 | 0.00 | 0.15 | 0.00 | 90 | 1011.2 |
| 20260902105306 | 27 | 219 | 17.7 | 32.2 | 0.00 | 0.15 | 0.00 | 90 | 1011.2 |
| 20260902105202 | 27 | 233 | 17.7 | 32.2 | 0.00 | 0.15 | 0.00 | 90 | 1011.2 |
| 20260902105101 | 27 | 237 | 16.1 | 32.2 | 0.00 | 0.15 | 0.00 | 90 | 1011.2 |
| 20260902104958 | 27 | 230 | 14.5 | 32.2 | 0.00 | 0.15 | 0.00 | 90 | 1011.2 |
| 20260902104857 | 27 | 213 | 11.3 | 32.2 | 0.00 | 0.15 | 0.00 | 90 | 1011.2 |
| 20260902104756 | 27 | 200 | 11.3 | 32.2 | 0.00 | 0.15 | 0.00 | 90 | 1011.2 |
| 20260902104655 | 27 | 255 | 14.5 | 32.2 | 0.00 | 0.15 | 0.00 | 90 | 1011.2 |
| 20260902104552 | 27 | 237 | 17.7 | 32.2 | 0.00 | 0.15 | 0.00 | 90 | 1011.2 |
| 20260902104452 | 27 | 243 | 19.3 | 32.2 | 0.00 | 0.15 | 0.00 | 90 | 1011.3 |
| 20260902104349 | 27 | 243 | 17.7 | 27.4 | 0.00 | 0.15 | 0.00 | 90 | 1011.2 |
| 20260902104248 | 27 | 244 | 14.5 | 24.1 | 0.00 | 0.15 | 0.00 | 90 | 1011.3 |
| 20260902104147 | 27 | 199 | 16.1 | 27.4 | 0.00 | 0.15 | 0.00 | 90 | 1011.3 |
| 20260902104045 | 27 | 248 | 16.1 | 27.4 | 0.00 | 0.15 | 0.00 | 90 | 1011.2 |
| 20260902103943 | 27 | 233 | 14.5 | 27.4 | 0.00 | 0.15 | 0.00 | 90 | 1011.3 |
| 20260902103842 | 27 | 254 | 14.5 | 27.4 | 0.00 | 0.15 | 0.00 | 90 | 1011.2 |
| 20260902103740 | 27 | 245 | 14.5 | 27.4 | 0.00 | 0.15 | 0.00 | 90 | 1011.3 |
| 20260902103640 | 27 | 238 | 14.5 | 27.4 | 0.00 | 0.15 | 0.00 | 90 | 1011.2 |
| 20260902103537 | 27 | 230 | 14.5 | 27.4 | 0.00 | 0.15 | 0.00 | 90 | 1011.2 |
| 20260902103437 | 27 | 240 | 12.9 | 27.4 | 0.00 | 0.15 | 0.00 | 90 | 1011.3 |
| 20260902103337 | 27 | 234 | 16.1 | 27.4 | 0.00 | 0.15 | 0.00 | 90 | 1011.3 |
| 20260902103239 | 27 | 254 | 16.1 | 27.4 | 0.00 | 0.15 | 0.00 | 90 | 1011.3 |
| 20260902103139 | 27 | 251 | 14.5 | 24.1 | 0.00 | 0.15 | 0.00 | 89 | 1011.3 |
| 20260902103038 | 27 | 227 | 12.9 | 24.1 | 0.00 | 0.15 | 0.00 | 89 | 1011.4 |
| 20260902102939 | 27 | 247 | 12.9 | 24.1 | 0.00 | 0.15 | 0.00 | 89 | 1011.3 |
| 20260902102837 | 27 | 240 | 14.5 | 24.1 | 0.00 | 0.15 | 0.00 | 89 | 1011.3 |
| 20260902102737 | 27 | 221 | 16.1 | 24.1 | 0.00 | 0.15 | 0.00 | 89 | 1011.3 |
| 20260902102637 | 27 | 228 | 14.5 | 24.1 | 0.00 | 0.15 | 0.00 | 89 | 1011.3 |
| 20260902102538 | 27 | 216 | 14.5 | 24.1 | 0.00 | 0.15 | 0.00 | 89 | 1011.2 |
| 20260902102438 | 27 | 238 | 16.1 | 24.1 | 0.00 | 0.15 | 0.00 | 89 | 1011.3 |
| 20260902102338 | 27 | 248 | 16.1 | 24.1 | 0.00 | 0.15 | 0.00 | 89 | 1011.3 |
| 20260902102238 | 27 | 243 | 14.5 | 24.1 | 0.00 | 0.15 | 0.00 | 89 | 1011.4 |
| 20260902102137 | 27 | 223 | 11.3 | 24.1 | 0.00 | 0.15 | 0.00 | 89 | 1011.4 |
| 20260902102037 | 27 | 271 | 11.3 | 24.1 | 0.00 | 0.15 | 0.00 | 89 | 1011.4 |
| 20260902101938 | 27 | 241 | 14.5 | 24.1 | 0.00 | 0.15 | 0.00 | 89 | 1011.3 |
| 20260902101837 | 27 | 226 | 16.1 | 24.1 | 0.00 | 0.15 | 0.00 | 89 | 1011.4 |
| 20260902101737 | 27 | 281 | 14.5 | 22.5 | 0.00 | 0.15 | 0.00 | 89 | 1011.4 |
| 20260902101637 | 27 | 247 | 14.5 | 24.1 | 0.00 | 0.15 | 0.00 | 89 | 1011.4 |
| 20260902101538 | 27 | 254 | 16.1 | 24.1 | 0.00 | 0.15 | 0.00 | 89 | 1011.5 |
| 20260902101437 | 27 | 255 | 14.5 | 24.1 | 0.00 | 0.15 | 0.00 | 89 | 1011.4 |
| 20260902101337 | 27 | 245 | 12.9 | 24.1 | 0.00 | 0.15 | 0.00 | 89 | 1011.4 |
| 20260902101238 | 27 | 254 | 12.9 | 24.1 | 0.00 | 0.15 | 0.00 | 89 | 1011.4 |
| 20260902101138 | 27 | 248 | 14.5 | 24.1 | 0.00 | 0.15 | 0.00 | 89 | 1011.3 |
| 20260902101039 | 27 | 257 | 16.1 | 24.1 | 0.00 | 0.15 | 0.00 | 89 | 1011.4 |
| 20260902100938 | 27 | 285 | 16.1 | 24.1 | 0.00 | 0.15 | 0.00 | 89 | 1011.4 |
| 20260902100840 | 27 | 223 | 16.1 | 24.1 | 0.00 | 0.15 | 0.00 | 89 | 1011.3 |
| 20260902100740 | 27 | 233 | 14.5 | 24.1 | 0.00 | 0.15 | 0.00 | 89 | 1011.4 |
| 20260902100637 | 27 | 258 | 14.5 | 24.1 | 0.00 | 0.15 | 0.00 | 89 | 1011.3 |
| 20260902100538 | 27 | 279 | 16.1 | 24.1 | 0.00 | 0.15 | 0.00 | 89 | 1011.3 |
| 20260902100437 | 27 | 255 | 14.5 | 24.1 | 0.00 | 0.15 | 0.00 | 89 | 1011.4 |
| 20260902100338 | 27 | 219 | 12.9 | 27.4 | 0.00 | 0.15 | 0.00 | 89 | 1011.3 |
| 20260902100239 | 27 | 224 | 14.5 | 27.4 | 0.00 | 0.15 | 0.00 | 89 | 1011.3 |
| 20260902100139 | 27 | 271 | 14.5 | 27.4 | 0.00 | 0.15 | 0.00 | 89 | 1011.3 |
| 20260902100038 | 27 | 223 | 12.9 | 27.4 | 0.00 | 0.15 | 0.00 | 89 | 1011.3 |
| 20260902095936 | 27 | 261 | 11.3 | 27.4 | 0.00 | 0.15 | 0.00 | 89 | 1011.3 |
| 20260902095838 | 27 | 247 | 11.3 | 27.4 | 0.00 | 0.15 | 0.00 | 89 | 1011.3 |
| 20260902095737 | 27 | 235 | 12.9 | 27.4 | 0.00 | 0.15 | 0.00 | 89 | 1011.3 |
| 20260902095637 | 27 | 288 | 16.1 | 27.4 | 0.00 | 0.15 | 0.00 | 89 | 1011.3 |
| 20260902095538 | 27 | 234 | 19.3 | 27.4 | 0.00 | 0.15 | 0.00 | 89 | 1011.3 |
| 20260902095437 | 27 | 217 | 16.1 | 27.4 | 0.00 | 0.15 | 0.00 | 89 | 1011.3 |
| 20260902095336 | 27 | 226 | 14.5 | 27.4 | 0.00 | 0.15 | 0.00 | 89 | 1011.4 |
| 20260902095238 | 27 | 245 | 17.7 | 27.4 | 0.00 | 0.15 | 0.00 | 89 | 1011.3 |
| 20260902095137 | 27 | 219 | 14.5 | 24.1 | 0.00 | 0.15 | 0.00 | 89 | 1011.3 |
| 20260902095036 | 27 | 231 | 16.1 | 24.1 | 0.00 | 0.15 | 0.00 | 89 | 1011.3 |
| 20260902094936 | 27 | 200 | 16.1 | 24.1 | 0.00 | 0.15 | 0.00 | 89 | 1011.3 |
| 20260902094837 | 27 | 243 | 12.9 | 24.1 | 0.00 | 0.15 | 0.00 | 89 | 1011.2 |
| 20260902094737 | 27 | 252 | 12.9 | 24.1 | 0.00 | 0.15 | 0.00 | 89 | 1011.2 |
| 20260902094636 | 27 | 271 | 14.5 | 24.1 | 0.00 | 0.15 | 0.00 | 89 | 1011.3 |
| 20260902094537 | 27 | 216 | 16.1 | 24.1 | 0.00 | 0.15 | 0.00 | 89 | 1011.2 |
| 20260902094438 | 27 | 223 | 16.1 | 24.1 | 0.00 | 0.15 | 0.00 | 89 | 1011.2 |
| 20260902094336 | 27 | 254 | 14.5 | 25.7 | 0.00 | 0.15 | 0.00 | 89 | 1011.2 |
| 20260902094236 | 27 | 264 | 14.5 | 25.7 | 0.00 | 0.15 | 0.00 | 89 | 1011.2 |
| 20260902094138 | 27 | 250 | 17.7 | 27.4 | 0.00 | 0.15 | 0.00 | 89 | 1011.1 |
| 20260902094038 | 27 | 217 | 17.7 | 27.4 | 0.00 | 0.15 | 0.00 | 89 | 1011.1 |
| 20260902093938 | 27 | 262 | 16.1 | 29.0 | 0.00 | 0.15 | 0.00 | 89 | 1011.2 |
| 20260902093836 | 27 | 195 | 14.5 | 29.0 | 0.00 | 0.15 | 0.00 | 89 | 1011.2 |
| 20260902093737 | 27 | 209 | 14.5 | 29.0 | 0.00 | 0.15 | 0.00 | 89 | 1011.2 |
| 20260902093637 | 27 | 226 | 14.5 | 29.0 | 0.00 | 0.15 | 0.00 | 89 | 1011.1 |
| 20260902093538 | 27 | 264 | 14.5 | 29.0 | 0.00 | 0.15 | 0.00 | 88 | 1011.2 |
| 20260902093437 | 27 | 298 | 16.1 | 29.0 | 0.00 | 0.15 | 0.00 | 88 | 1011.1 |
| 20260902093337 | 27 | 221 | 17.7 | 29.0 | 0.00 | 0.15 | 0.00 | 88 | 1011.1 |
| 20260902093237 | 27 | 220 | 16.1 | 29.0 | 0.00 | 0.15 | 0.00 | 88 | 1011.1 |
| 20260902093137 | 27 | 193 | 16.1 | 29.0 | 0.00 | 0.15 | 0.00 | 88 | 1011.1 |
| 20260902093038 | 27 | 255 | 17.7 | 29.0 | 0.00 | 0.15 | 0.00 | 88 | 1011.1 |
| 20260902092938 | 27 | 240 | 16.1 | 29.0 | 0.00 | 0.15 | 0.00 | 88 | 1011.2 |
| 20260902092836 | 27 | 245 | 16.1 | 24.1 | 0.00 | 0.15 | 0.00 | 88 | 1011.2 |
| 20260902092738 | 27 | 272 | 14.5 | 24.1 | 0.00 | 0.15 | 0.00 | 88 | 1011.2 |
| 20260902092636 | 27 | 265 | 14.5 | 24.1 | 0.00 | 0.15 | 0.00 | 88 | 1011.2 |
| 20260902092536 | 27 | 269 | 14.5 | 24.1 | 0.00 | 0.15 | 0.00 | 88 | 1011.2 |
| 20260902092435 | 27 | 235 | 16.1 | 24.1 | 0.00 | 0.15 | 0.00 | 88 | 1011.2 |
| 20260902092337 | 27 | 248 | 16.1 | 27.4 | 0.00 | 0.15 | 0.00 | 88 | 1011.3 |
| 20260902092237 | 27 | 216 | 16.1 | 27.4 | 0.00 | 0.15 | 0.00 | 88 | 1011.2 |
| 20260902092136 | 27 | 238 | 16.1 | 27.4 | 0.00 | 0.15 | 0.00 | 88 | 1011.3 |
| 20260902092039 | 27 | 217 | 14.5 | 27.4 | 0.00 | 0.15 | 0.00 | 88 | 1011.2 |
| 20260902091935 | 27 | 223 | 16.1 | 27.4 | 0.00 | 0.15 | 0.00 | 88 | 1011.1 |
| 20260902091836 | 27 | 252 | 16.1 | 27.4 | 0.00 | 0.15 | 0.00 | 88 | 1011.1 |
| 20260902091738 | 27 | 186 | 17.7 | 27.4 | 0.00 | 0.15 | 0.00 | 88 | 1011.1 |
| 20260902091638 | 27 | 217 | 17.7 | 27.4 | 0.00 | 0.15 | 0.00 | 88 | 1011.1 |
| 20260902091536 | 27 | 237 | 17.7 | 27.4 | 0.00 | 0.15 | 0.00 | 88 | 1011.1 |
| 20260902091436 | 27 | 248 | 17.7 | 27.4 | 0.00 | 0.15 | 0.00 | 88 | 1011.1 |
| 20260902091338 | 27 | 224 | 16.1 | 25.7 | 0.00 | 0.15 | 0.00 | 88 | 1011.1 |
| 20260902091236 | 27 | 230 | 17.7 | 25.7 | 0.00 | 0.15 | 0.00 | 87 | 1011.1 |
| 20260902091136 | 27 | 238 | 19.3 | 25.7 | 0.00 | 0.15 | 0.00 | 87 | 1011.1 |
| 20260902091038 | 27 | 237 | 17.7 | 25.7 | 0.00 | 0.15 | 0.00 | 87 | 1011.1 |
| 20260902090936 | 27 | 220 | 16.1 | 25.7 | 0.00 | 0.15 | 0.00 | 87 | 1011.0 |
| 20260902090835 | 27 | 248 | 17.7 | 25.7 | 0.00 | 0.15 | 0.00 | 87 | 1011.2 |
| 20260902090735 | 27 | 245 | 16.1 | 24.1 | 0.00 | 0.15 | 0.00 | 87 | 1011.1 |
| 20260902090636 | 27 | 226 | 14.5 | 25.7 | 0.00 | 0.15 | 0.00 | 87 | 1011.1 |
| 20260902090536 | 27 | 241 | 16.1 | 27.4 | 0.00 | 0.15 | 0.00 | 87 | 1011.0 |
| 20260902090435 | 27 | 219 | 16.1 | 27.4 | 0.00 | 0.15 | 0.00 | 87 | 1011.1 |
| 20260902090335 | 27 | 244 | 16.1 | 27.4 | 0.00 | 0.15 | 0.00 | 87 | 1011.1 |
| 20260902090236 | 27 | 259 | 16.1 | 27.4 | 0.00 | 0.15 | 0.00 | 87 | 1011.1 |
| 20260902090136 | 27 | 250 | 14.5 | 27.4 | 0.00 | 0.15 | 0.00 | 87 | 1011.1 |
| 20260902090037 | 27 | 261 | 16.1 | 27.4 | 0.00 | 0.15 | 0.00 | 87 | 1011.1 |
| 20260902085936 | 27 | 283 | 16.1 | 27.4 | 0.00 | 0.15 | 0.00 | 87 | 1011.1 |
| 20260902085835 | 27 | 228 | 17.7 | 27.4 | 0.00 | 0.15 | 0.00 | 87 | 1011.1 |
| 20260902085735 | 27 | 231 | 17.7 | 27.4 | 0.00 | 0.15 | 0.00 | 87 | 1011.1 |
| 20260902085635 | 27 | 237 | 16.1 | 27.4 | 0.00 | 0.15 | 0.00 | 87 | 1011.1 |
| 20260902085536 | 27 | 238 | 16.1 | 27.4 | 0.00 | 0.15 | 0.00 | 87 | 1011.1 |
| 20260902085434 | 27 | 264 | 17.7 | 27.4 | 0.00 | 0.15 | 0.00 | 87 | 1011.1 |
| 20260902085332 | 27 | 216 | 17.7 | 27.4 | 0.00 | 0.15 | 0.00 | 87 | 1011.1 |
| 20260902085234 | 27 | 224 | 14.5 | 27.4 | 0.00 | 0.15 | 0.00 | 87 | 1011.1 |
| 20260902085130 | 27 | 243 | 17.7 | 27.4 | 0.00 | 0.15 | 0.00 | 87 | 1011.0 |
| 20260902085031 | 27 | 224 | 17.7 | 27.4 | 0.00 | 0.15 | 0.00 | 87 | 1011.0 |
| 20260902084933 | 27 | 214 | 17.7 | 25.7 | 0.00 | 0.15 | 0.00 | 87 | 1011.0 |
| 20260902084832 | 27 | 224 | 17.7 | 25.7 | 0.00 | 0.15 | 0.00 | 87 | 1011.1 |
| 20260902084731 | 27 | 223 | 17.7 | 25.7 | 0.00 | 0.15 | 0.00 | 87 | 1011.1 |
| 20260902084632 | 27 | 226 | 17.7 | 25.7 | 0.00 | 0.15 | 0.00 | 87 | 1011.1 |
| 20260902084532 | 27 | 221 | 17.7 | 25.7 | 0.00 | 0.15 | 0.00 | 86 | 1011.0 |
| 20260902084431 | 27 | 230 | 16.1 | 25.7 | 0.00 | 0.15 | 0.00 | 87 | 1011.1 |
| 20260902084331 | 27 | 234 | 16.1 | 25.7 | 0.00 | 0.15 | 0.00 | 86 | 1011.1 |
| 20260902084232 | 27 | 275 | 16.1 | 25.7 | 0.00 | 0.15 | 0.00 | 86 | 1011.0 |
| 20260902084132 | 27 | 244 | 14.5 | 25.7 | 0.00 | 0.15 | 0.00 | 86 | 1011.0 |
| 20260902084032 | 27 | 180 | 14.5 | 25.7 | 0.00 | 0.15 | 0.00 | 86 | 1011.1 |
| 20260902083932 | 27 | 269 | 14.5 | 25.7 | 0.00 | 0.15 | 0.00 | 86 | 1011.1 |
| 20260902083830 | 27 | 231 | 14.5 | 25.7 | 0.00 | 0.15 | 0.00 | 86 | 1011.1 |
| 20260902083730 | 27 | 235 | 16.1 | 25.7 | 0.00 | 0.15 | 0.00 | 86 | 1011.1 |
| 20260902083631 | 27 | 250 | 17.7 | 25.7 | 0.00 | 0.15 | 0.00 | 86 | 1011.0 |
| 20260902083531 | 27 | 247 | 17.7 | 25.7 | 0.00 | 0.15 | 0.00 | 86 | 1011.1 |
| 20260902083432 | 27 | 264 | 16.1 | 25.7 | 0.00 | 0.15 | 0.00 | 86 | 1011.1 |
| 20260902083330 | 27 | 250 | 14.5 | 24.1 | 0.00 | 0.15 | 0.00 | 86 | 1011.1 |
| 20260902083232 | 27 | 221 | 12.9 | 24.1 | 0.00 | 0.15 | 0.00 | 86 | 1011.1 |
| 20260902083132 | 27 | 240 | 12.9 | 24.1 | 0.00 | 0.15 | 0.00 | 86 | 1011.1 |
| 20260902083032 | 27 | 241 | 14.5 | 24.1 | 0.00 | 0.15 | 0.00 | 86 | 1011.2 |
| 20260902082932 | 27 | 212 | 16.1 | 22.5 | 0.00 | 0.15 | 0.00 | 86 | 1011.2 |
| 20260902082832 | 27 | 241 | 17.7 | 22.5 | 0.00 | 0.15 | 0.00 | 86 | 1011.2 |
| 20260902082732 | 27 | 227 | 14.5 | 22.5 | 0.00 | 0.15 | 0.00 | 86 | 1011.2 |
| 20260902082631 | 27 | 202 | 16.1 | 24.1 | 0.00 | 0.15 | 0.00 | 86 | 1011.3 |
| 20260902082532 | 27 | 245 | 14.5 | 24.1 | 0.00 | 0.15 | 0.00 | 86 | 1011.2 |
| 20260902082433 | 27 | 224 | 12.9 | 24.1 | 0.00 | 0.15 | 0.00 | 86 | 1011.2 |
| 20260902082331 | 27 | 250 | 12.9 | 24.1 | 0.00 | 0.15 | 0.00 | 86 | 1011.1 |
| 20260902082232 | 27 | 244 | 12.9 | 24.1 | 0.00 | 0.15 | 0.00 | 86 | 1011.1 |
| 20260902082131 | 27 | 235 | 12.9 | 24.1 | 0.00 | 0.15 | 0.00 | 86 | 1011.1 |
| 20260902082031 | 27 | 261 | 14.5 | 24.1 | 0.00 | 0.15 | 0.00 | 86 | 1011.1 |
| 20260902081933 | 27 | 251 | 14.5 | 24.1 | 0.00 | 0.15 | 0.00 | 86 | 1011.1 |
| 20260902081832 | 27 | 241 | 16.1 | 24.1 | 0.00 | 0.15 | 0.00 | 86 | 1011.1 |
| 20260902081732 | 27 | 226 | 16.1 | 24.1 | 0.00 | 0.15 | 0.00 | 86 | 1011.1 |
| 20260902081631 | 27 | 228 | 14.5 | 24.1 | 0.00 | 0.15 | 0.00 | 86 | 1011.2 |
| 20260902081532 | 27 | 238 | 14.5 | 24.1 | 0.00 | 0.15 | 0.00 | 85 | 1011.2 |
| 20260902081431 | 27 | 230 | 16.1 | 24.1 | 0.00 | 0.15 | 0.00 | 85 | 1011.1 |
| 20260902081331 | 27 | 243 | 17.7 | 24.1 | 0.00 | 0.15 | 0.00 | 85 | 1011.1 |
| 20260902081232 | 27 | 235 | 17.7 | 22.5 | 0.00 | 0.15 | 0.00 | 85 | 1011.2 |
| 20260902081132 | 27 | 234 | 16.1 | 22.5 | 0.00 | 0.15 | 0.00 | 85 | 1011.2 |
| 20260902081030 | 27 | 230 | 14.5 | 22.5 | 0.00 | 0.15 | 0.00 | 85 | 1011.1 |
| 20260902080931 | 27 | 247 | 12.9 | 20.9 | 0.00 | 0.15 | 0.00 | 85 | 1011.2 |
| 20260902080833 | 27 | 233 | 11.3 | 20.9 | 0.00 | 0.15 | 0.00 | 85 | 1011.1 |
| 20260902080732 | 27 | 254 | 12.9 | 20.9 | 0.00 | 0.15 | 0.00 | 85 | 1011.1 |
| 20260902080632 | 27 | 228 | 12.9 | 20.9 | 0.00 | 0.15 | 0.00 | 85 | 1011.2 |
| 20260902080533 | 27 | 217 | 11.3 | 20.9 | 0.00 | 0.15 | 0.00 | 85 | 1011.2 |
| 20260902080432 | 27 | 207 | 12.9 | 20.9 | 0.00 | 0.15 | 0.00 | 85 | 1011.2 |
| 20260902080331 | 27 | 254 | 14.5 | 20.9 | 0.00 | 0.15 | 0.00 | 85 | 1011.2 |
| 20260902080231 | 27 | 221 | 14.5 | 20.9 | 0.00 | 0.15 | 0.00 | 85 | 1011.2 |
| 20260902080131 | 27 | 217 | 14.5 | 19.3 | 0.00 | 0.15 | 0.00 | 85 | 1011.2 |
| 20260902080032 | 27 | 220 | 12.9 | 19.3 | 0.00 | 0.15 | 0.00 | 84 | 1011.2 |
| 20260902075932 | 27 | 221 | 12.9 | 17.7 | 0.00 | 0.15 | 0.00 | 84 | 1011.2 |
| 20260902075832 | 27 | 235 | 11.3 | 17.7 | 0.00 | 0.15 | 0.00 | 84 | 1011.2 |
| 20260902075731 | 27 | 244 | 11.3 | 17.7 | 0.00 | 0.15 | 0.00 | 84 | 1011.2 |
| 20260902075631 | 27 | 245 | 9.7 | 17.7 | 0.00 | 0.15 | 0.00 | 84 | 1011.2 |
| 20260902075533 | 27 | 224 | 9.7 | 17.7 | 0.00 | 0.15 | 0.00 | 83 | 1011.2 |
| 20260902075431 | 27 | 262 | 11.3 | 17.7 | 0.00 | 0.15 | 0.00 | 83 | 1011.2 |
| 20260902075332 | 27 | 252 | 11.3 | 17.7 | 0.00 | 0.15 | 0.00 | 83 | 1011.2 |
| 20260902075230 | 27 | 238 | 11.3 | 17.7 | 0.00 | 0.15 | 0.00 | 83 | 1011.2 |
| 20260902075131 | 27 | 244 | 11.3 | 17.7 | 0.00 | 0.15 | 0.00 | 83 | 1011.1 |
| 20260902075031 | 27 | 244 | 11.3 | 17.7 | 0.00 | 0.15 | 0.00 | 83 | 1011.2 |
| 20260902074932 | 27 | 227 | 11.3 | 17.7 | 0.00 | 0.15 | 0.00 | 83 | 1011.1 |
| 20260902074832 | 27 | 243 | 9.7 | 17.7 | 0.00 | 0.15 | 0.00 | 82 | 1011.2 |
| 20260902074732 | 27 | 234 | 9.7 | 19.3 | 0.00 | 0.15 | 0.00 | 82 | 1011.2 |
| 20260902074632 | 27 | 238 | 9.7 | 19.3 | 0.00 | 0.15 | 0.00 | 82 | 1011.2 |
| 20260902074531 | 27 | 226 | 9.7 | 19.3 | 0.00 | 0.15 | 0.00 | 82 | 1011.3 |
| 20260902074432 | 27 | 244 | 9.7 | 19.3 | 0.00 | 0.15 | 0.00 | 82 | 1011.2 |
| 20260902074334 | 27 | 258 | 11.3 | 19.3 | 0.00 | 0.15 | 0.00 | 82 | 1011.3 |
| 20260902074230 | 27 | 255 | 11.3 | 19.3 | 0.00 | 0.15 | 0.00 | 82 | 1011.2 |
| 20260902074131 | 27 | 227 | 9.7 | 19.3 | 0.00 | 0.15 | 0.00 | 81 | 1011.2 |
| 20260902074031 | 27 | 259 | 11.3 | 19.3 | 0.00 | 0.15 | 0.00 | 81 | 1011.4 |
| 20260902073931 | 27 | 243 | 11.3 | 19.3 | 0.00 | 0.15 | 0.00 | 81 | 1011.3 |
| 20260902073833 | 27 | 251 | 11.3 | 19.3 | 0.00 | 0.15 | 0.00 | 81 | 1011.3 |
| 20260902073732 | 27 | 223 | 9.7 | 17.7 | 0.00 | 0.15 | 0.00 | 81 | 1011.3 |
| 20260902073631 | 27 | 217 | 9.7 | 17.7 | 0.00 | 0.15 | 0.00 | 81 | 1011.3 |
| 20260902073531 | 27 | 244 | 9.7 | 17.7 | 0.00 | 0.15 | 0.00 | 81 | 1011.3 |
| 20260902073432 | 27 | 251 | 11.3 | 17.7 | 0.00 | 0.15 | 0.00 | 81 | 1011.4 |
| 20260902073331 | 27 | 217 | 11.3 | 17.7 | 0.00 | 0.15 | 0.00 | 80 | 1011.4 |
| 20260902073231 | 27 | 219 | 11.3 | 17.7 | 0.00 | 0.15 | 0.00 | 80 | 1011.3 |
| 20260902073134 | 27 | 264 | 11.3 | 17.7 | 0.00 | 0.15 | 0.00 | 80 | 1011.3 |
| 20260902073031 | 27 | 235 | 9.7 | 17.7 | 0.00 | 0.15 | 0.00 | 80 | 1011.4 |
| 20260902072931 | 27 | 206 | 11.3 | 17.7 | 0.00 | 0.15 | 0.00 | 80 | 1011.4 |
| 20260902072832 | 27 | 206 | 11.3 | 17.7 | 0.00 | 0.15 | 0.00 | 80 | 1011.4 |
| 20260902072733 | 27 | 241 | 11.3 | 17.7 | 0.00 | 0.15 | 0.00 | 81 | 1011.4 |
| 20260902072631 | 27 | 257 | 11.3 | 17.7 | 0.00 | 0.15 | 0.00 | 81 | 1011.5 |
| 20260902072531 | 27 | 228 | 9.7 | 17.7 | 0.00 | 0.15 | 0.00 | 81 | 1011.5 |
| 20260902072433 | 27 | 230 | 9.7 | 17.7 | 0.00 | 0.15 | 0.00 | 81 | 1011.4 |
| 20260902072331 | 27 | 243 | 9.7 | 17.7 | 0.00 | 0.15 | 0.00 | 81 | 1011.5 |
| 20260902072230 | 27 | 210 | 9.7 | 17.7 | 0.00 | 0.15 | 0.00 | 81 | 1011.4 |
| 20260902072131 | 27 | 251 | 9.7 | 17.7 | 0.00 | 0.15 | 0.00 | 81 | 1011.5 |
| 20260902072032 | 27 | 241 | 9.7 | 17.7 | 0.00 | 0.15 | 0.00 | 81 | 1011.5 |
| 20260902071931 | 27 | 230 | 9.7 | 19.3 | 0.00 | 0.15 | 0.00 | 81 | 1011.5 |
| 20260902071832 | 27 | 217 | 11.3 | 19.3 | 0.00 | 0.15 | 0.00 | 81 | 1011.4 |
| 20260902071732 | 27 | 261 | 11.3 | 19.3 | 0.00 | 0.15 | 0.00 | 81 | 1011.5 |
| 20260902071631 | 27 | 213 | 11.3 | 19.3 | 0.00 | 0.15 | 0.00 | 81 | 1011.5 |
| 20260902071531 | 27 | 241 | 9.7 | 19.3 | 0.00 | 0.15 | 0.00 | 81 | 1011.5 |
| 20260902071432 | 27 | 257 | 11.3 | 19.3 | 0.00 | 0.15 | 0.00 | 82 | 1011.5 |
| 20260902071332 | 27 | 245 | 9.7 | 19.3 | 0.00 | 0.15 | 0.00 | 82 | 1011.6 |
| 20260902071232 | 27 | 231 | 11.3 | 19.3 | 0.00 | 0.15 | 0.00 | 82 | 1011.5 |
| 20260902071131 | 27 | 265 | 11.3 | 19.3 | 0.00 | 0.15 | 0.00 | 82 | 1011.5 |
| 20260902071033 | 27 | 245 | 12.9 | 19.3 | 0.00 | 0.15 | 0.00 | 82 | 1011.5 |
| 20260902070931 | 27 | 213 | 11.3 | 19.3 | 0.00 | 0.15 | 0.00 | 82 | 1011.6 |
| 20260902070831 | 27 | 292 | 9.7 | 17.7 | 0.00 | 0.15 | 0.00 | 82 | 1011.4 |
| 20260902070731 | 27 | 243 | 9.7 | 17.7 | 0.00 | 0.15 | 0.00 | 82 | 1011.5 |
| 20260902070630 | 27 | 244 | 9.7 | 17.7 | 0.00 | 0.15 | 0.00 | 82 | 1011.5 |
| 20260902070530 | 27 | 258 | 11.3 | 17.7 | 0.00 | 0.15 | 0.00 | 82 | 1011.5 |
| 20260902070431 | 27 | 264 | 11.3 | 17.7 | 0.00 | 0.15 | 0.00 | 82 | 1011.5 |
| 20260902070336 | 27 | 227 | 11.3 | 17.7 | 0.00 | 0.15 | 0.00 | 82 | 1011.5 |
| 20260902070234 | 27 | 223 | 11.3 | 17.7 | 0.00 | 0.15 | 0.00 | 82 | 1011.4 |
| 20260902070132 | 27 | 217 | 11.3 | 17.7 | 0.00 | 0.15 | 0.00 | 82 | 1011.5 |
| 20260902070032 | 27 | 244 | 9.7 | 11.3 | 0.00 | 0.15 | 0.00 | 82 | 1011.5 |
| 20260902065931 | 27 | 217 | 9.7 | 11.3 | 0.00 | 0.15 | 0.00 | 82 | 1011.4 |
| 20260902065831 | 27 | 237 | 8.0 | 11.3 | 0.00 | 0.15 | 0.00 | 82 | 1011.4 |
| 20260902065732 | 27 | 238 | 6.4 | 11.3 | 0.00 | 0.15 | 0.00 | 82 | 1011.4 |
| 20260902065633 | 27 | 227 | 6.4 | 14.5 | 0.00 | 0.15 | 0.00 | 82 | 1011.4 |
| 20260902065532 | 27 | 275 | 6.4 | 14.5 | 0.00 | 0.15 | 0.00 | 82 | 1011.4 |
| 20260902065431 | 27 | 247 | 6.4 | 14.5 | 0.00 | 0.15 | 0.00 | 82 | 1011.4 |
| 20260902065333 | 27 | 251 | 4.8 | 14.5 | 0.00 | 0.15 | 0.00 | 82 | 1011.4 |
| 20260902065231 | 27 | 252 | 4.8 | 14.5 | 0.00 | 0.15 | 0.00 | 82 | 1011.4 |
| 20260902065133 | 27 | 223 | 4.8 | 14.5 | 0.00 | 0.15 | 0.00 | 82 | 1011.5 |
| 20260902065032 | 27 | 268 | 6.4 | 14.5 | 0.00 | 0.15 | 0.00 | 82 | 1011.5 |
| 20260902064932 | 27 | 234 | 8.0 | 14.5 | 0.00 | 0.15 | 0.00 | 82 | 1011.4 |
| 20260902064830 | 27 | 230 | 8.0 | 14.5 | 0.00 | 0.15 | 0.00 | 82 | 1011.4 |
| 20260902064730 | 27 | 231 | 6.4 | 14.5 | 0.00 | 0.15 | 0.00 | 82 | 1011.4 |
| 20260902064628 | 27 | 227 | 6.4 | 14.5 | 0.00 | 0.15 | 0.00 | 82 | 1011.3 |
| 20260902064526 | 27 | 265 | 6.4 | 14.5 | 0.00 | 0.15 | 0.00 | 82 | 1011.4 |
| 20260902064425 | 27 | 237 | 8.0 | 14.5 | 0.00 | 0.15 | 0.00 | 81 | 1011.4 |
| 20260902064325 | 27 | 265 | 8.0 | 14.5 | 0.00 | 0.15 | 0.00 | 81 | 1011.5 |
| 20260902064222 | 27 | 262 | 8.0 | 14.5 | 0.00 | 0.15 | 0.00 | 81 | 1011.5 |
| 20260902064120 | 27 | 258 | 9.7 | 14.5 | 0.00 | 0.15 | 0.00 | 81 | 1011.5 |
| 20260902064018 | 27 | 248 | 8.0 | 14.5 | 0.00 | 0.15 | 0.00 | 81 | 1011.5 |
| 20260902063919 | 27 | 257 | 8.0 | 14.5 | 0.00 | 0.15 | 0.00 | 81 | 1011.5 |
| 20260902063816 | 27 | 243 | 8.0 | 14.5 | 0.00 | 0.15 | 0.00 | 81 | 1011.6 |
| 20260902063716 | 27 | 233 | 8.0 | 14.5 | 0.00 | 0.15 | 0.00 | 81 | 1011.5 |
| 20260902063613 | 27 | 235 | 9.7 | 14.5 | 0.00 | 0.15 | 0.00 | 81 | 1011.5 |
| 20260902063513 | 27 | 238 | 9.7 | 14.5 | 0.00 | 0.15 | 0.00 | 81 | 1011.5 |
| 20260902063409 | 27 | 241 | 9.7 | 14.5 | 0.00 | 0.15 | 0.00 | 81 | 1011.4 |
| 20260902063307 | 27 | 240 | 9.7 | 11.3 | 0.00 | 0.15 | 0.00 | 81 | 1011.4 |
| 20260902063205 | 27 | 237 | 9.7 | 11.3 | 0.00 | 0.15 | 0.00 | 81 | 1011.5 |
| 20260902063103 | 27 | 235 | 9.7 | 11.3 | 0.00 | 0.15 | 0.00 | 81 | 1011.5 |
| 20260902063003 | 27 | 235 | 8.0 | 9.7 | 0.00 | 0.15 | 0.00 | 81 | 1011.4 |
| 20260902062904 | 27 | 252 | 6.4 | 9.7 | 0.00 | 0.15 | 0.00 | 81 | 1011.5 |
| 20260902062802 | 27 | 248 | 6.4 | 9.7 | 0.00 | 0.15 | 0.00 | 81 | 1011.5 |
| 20260902062703 | 27 | 292 | 8.0 | 9.7 | 0.00 | 0.15 | 0.00 | 81 | 1011.4 |
| 20260902062602 | 27 | 237 | 6.4 | 11.3 | 0.00 | 0.15 | 0.00 | 81 | 1011.5 |
| 20260902062503 | 27 | 275 | 6.4 | 11.3 | 0.00 | 0.15 | 0.00 | 81 | 1011.5 |
| 20260902062404 | 27 | 220 | 6.4 | 11.3 | 0.00 | 0.15 | 0.00 | 81 | 1011.5 |
| 20260902062305 | 27 | 207 | 4.8 | 11.3 | 0.00 | 0.15 | 0.00 | 81 | 1011.5 |
| 20260902062202 | 27 | 271 | 6.4 | 11.3 | 0.00 | 0.15 | 0.00 | 81 | 1011.5 |
| 20260902062102 | 27 | 266 | 6.4 | 11.3 | 0.00 | 0.15 | 0.00 | 81 | 1011.5 |
| 20260902062005 | 27 | 276 | 4.8 | 11.3 | 0.00 | 0.15 | 0.00 | 81 | 1011.5 |
| 20260902061903 | 27 | 266 | 4.8 | 11.3 | 0.00 | 0.15 | 0.00 | 81 | 1011.4 |
| 20260902061802 | 27 | 266 | 6.4 | 11.3 | 0.00 | 0.15 | 0.00 | 81 | 1011.4 |
| 20260902061702 | 27 | 292 | 8.0 | 11.3 | 0.00 | 0.15 | 0.00 | 81 | 1011.4 |
| 20260902061602 | 27 | 290 | 8.0 | 11.3 | 0.00 | 0.15 | 0.00 | 81 | 1011.4 |
| 20260902061502 | 27 | 259 | 6.4 | 11.3 | 0.00 | 0.15 | 0.00 | 81 | 1011.4 |
| 20260902061402 | 27 | 286 | 6.4 | 11.3 | 0.00 | 0.15 | 0.00 | 81 | 1011.4 |
| 20260902061304 | 27 | 272 | 6.4 | 11.3 | 0.00 | 0.15 | 0.00 | 81 | 1011.3 |
| 20260902061202 | 27 | 262 | 6.4 | 11.3 | 0.00 | 0.15 | 0.00 | 81 | 1011.3 |
| 20260902061103 | 27 | 265 | 4.8 | 11.3 | 0.00 | 0.15 | 0.00 | 81 | 1011.3 |
| 20260902061005 | 27 | 313 | 6.4 | 11.3 | 0.00 | 0.15 | 0.00 | 81 | 1011.2 |
| 20260902060903 | 27 | 276 | 6.4 | 11.3 | 0.00 | 0.15 | 0.00 | 81 | 1011.3 |
| 20260902060801 | 27 | 296 | 8.0 | 14.5 | 0.00 | 0.15 | 0.00 | 81 | 1011.2 |
| 20260902060701 | 27 | 292 | 8.0 | 14.5 | 0.00 | 0.15 | 0.00 | 81 | 1011.3 |
| 20260902060602 | 27 | 262 | 8.0 | 14.5 | 0.00 | 0.15 | 0.00 | 81 | 1011.3 |
| 20260902060502 | 27 | 283 | 8.0 | 14.5 | 0.00 | 0.15 | 0.00 | 81 | 1011.2 |
| 20260902060402 | 27 | 275 | 6.4 | 14.5 | 0.00 | 0.15 | 0.00 | 81 | 1011.1 |
| 20260902060302 | 27 | 259 | 6.4 | 14.5 | 0.00 | 0.15 | 0.00 | 81 | 1011.2 |
| 20260902060203 | 27 | 262 | 6.4 | 14.5 | 0.00 | 0.15 | 0.00 | 81 | 1011.2 |
| 20260902060105 | 27 | 288 | 6.4 | 14.5 | 0.00 | 0.15 | 0.00 | 81 | 1011.2 |
| 20260902060002 | 27 | 271 | 8.0 | 14.5 | 0.00 | 0.15 | 0.00 | 81 | 1011.2 |
| 20260902055903 | 27 | 269 | 8.0 | 14.5 | 0.00 | 0.15 | 0.00 | 81 | 1011.2 |
| 20260902055802 | 27 | 262 | 8.0 | 14.5 | 0.00 | 0.15 | 0.00 | 81 | 1011.1 |
| 20260902055703 | 27 | 272 | 8.0 | 16.1 | 0.00 | 0.15 | 0.00 | 81 | 1011.1 |
| 20260902055603 | 27 | 275 | 8.0 | 16.1 | 0.00 | 0.15 | 0.00 | 81 | 1011.1 |
| 20260902055502 | 27 | 247 | 8.0 | 16.1 | 0.00 | 0.15 | 0.00 | 81 | 1011.2 |
| 20260902055403 | 27 | 285 | 8.0 | 16.1 | 0.00 | 0.15 | 0.00 | 82 | 1011.0 |
| 20260902055306 | 27 | 275 | 9.7 | 16.1 | 0.00 | 0.15 | 0.00 | 81 | 1011.1 |
| 20260902055203 | 27 | 290 | 9.7 | 16.1 | 0.00 | 0.15 | 0.00 | 82 | 1011.1 |
| 20260902055100 | 27 | 317 | 8.0 | 16.1 | 0.00 | 0.15 | 0.00 | 82 | 1011.1 |
| 20260902055000 | 27 | 254 | 9.7 | 16.1 | 0.00 | 0.15 | 0.00 | 82 | 1011.1 |
| 20260902054858 | 27 | 230 | 11.3 | 16.1 | 0.00 | 0.15 | 0.00 | 82 | 1011.1 |
| 20260902054756 | 27 | 259 | 9.7 | 16.1 | 0.00 | 0.15 | 0.00 | 82 | 1011.2 |
| 20260902054653 | 27 | 259 | 8.0 | 16.1 | 0.00 | 0.15 | 0.00 | 82 | 1011.2 |
| 20260902054554 | 27 | 259 | 8.0 | 16.1 | 0.00 | 0.15 | 0.00 | 82 | 1011.2 |
| 20260902054451 | 27 | 276 | 6.4 | 16.1 | 0.00 | 0.15 | 0.00 | 82 | 1011.2 |
| 20260902054349 | 27 | 290 | 6.4 | 16.1 | 0.00 | 0.15 | 0.00 | 82 | 1011.2 |
| 20260902054249 | 27 | 259 | 8.0 | 16.1 | 0.00 | 0.15 | 0.00 | 82 | 1011.2 |
| 20260902054147 | 27 | 268 | 9.7 | 16.1 | 0.00 | 0.15 | 0.00 | 82 | 1011.3 |
| 20260902054044 | 27 | 245 | 8.0 | 14.5 | 0.00 | 0.15 | 0.00 | 82 | 1011.2 |
| 20260902053945 | 27 | 223 | 8.0 | 14.5 | 0.00 | 0.15 | 0.00 | 83 | 1011.3 |
| 20260902053843 | 27 | 262 | 8.0 | 14.5 | 0.00 | 0.15 | 0.00 | 83 | 1011.2 |
| 20260902053741 | 27 | 244 | 6.4 | 14.5 | 0.00 | 0.15 | 0.00 | 83 | 1011.2 |
| 20260902053640 | 27 | 235 | 8.0 | 14.5 | 0.00 | 0.15 | 0.00 | 83 | 1011.2 |
| 20260902053539 | 27 | 282 | 8.0 | 14.5 | 0.00 | 0.15 | 0.00 | 83 | 1011.3 |
| 20260902053435 | 27 | 245 | 6.4 | 14.5 | 0.00 | 0.15 | 0.00 | 83 | 1011.3 |
| 20260902053335 | 27 | 244 | 8.0 | 14.5 | 0.00 | 0.15 | 0.00 | 83 | 1011.2 |
| 20260902053232 | 27 | 250 | 9.7 | 14.5 | 0.00 | 0.15 | 0.00 | 83 | 1011.3 |
| 20260902053134 | 27 | 241 | 9.7 | 14.5 | 0.00 | 0.15 | 0.00 | 83 | 1011.2 |
| 20260902053031 | 27 | 254 | 8.0 | 14.5 | 0.00 | 0.15 | 0.00 | 83 | 1011.3 |
| 20260902052931 | 27 | 237 | 8.0 | 14.5 | 0.00 | 0.15 | 0.00 | 83 | 1011.3 |
| 20260902052833 | 27 | 223 | 8.0 | 14.5 | 0.00 | 0.15 | 0.00 | 83 | 1011.3 |
| 20260902052732 | 27 | 247 | 6.4 | 14.5 | 0.00 | 0.15 | 0.00 | 83 | 1011.3 |
| 20260902052631 | 27 | 245 | 6.4 | 16.1 | 0.00 | 0.15 | 0.00 | 83 | 1011.3 |
| 20260902052531 | 27 | 264 | 8.0 | 16.1 | 0.00 | 0.15 | 0.00 | 83 | 1011.3 |
| 20260902052432 | 27 | 258 | 8.0 | 16.1 | 0.00 | 0.15 | 0.00 | 83 | 1011.3 |
| 20260902052332 | 27 | 250 | 6.4 | 16.1 | 0.00 | 0.15 | 0.00 | 83 | 1011.3 |
| 20260902052230 | 27 | 264 | 8.0 | 16.1 | 0.00 | 0.15 | 0.00 | 83 | 1011.3 |
| 20260902052133 | 27 | 252 | 8.0 | 16.1 | 0.00 | 0.15 | 0.00 | 83 | 1011.2 |
| 20260902052032 | 27 | 292 | 6.4 | 17.7 | 0.00 | 0.15 | 0.00 | 83 | 1011.2 |
| 20260902051932 | 27 | 281 | 9.7 | 17.7 | 0.00 | 0.15 | 0.00 | 84 | 1011.1 |
| 20260902051832 | 27 | 283 | 9.7 | 17.7 | 0.00 | 0.15 | 0.00 | 84 | 1011.2 |
| 20260902051731 | 27 | 243 | 9.7 | 17.7 | 0.00 | 0.15 | 0.00 | 84 | 1011.2 |
| 20260902051632 | 27 | 217 | 9.7 | 17.7 | 0.00 | 0.15 | 0.00 | 84 | 1011.1 |
| 20260902051531 | 27 | 272 | 8.0 | 17.7 | 0.00 | 0.15 | 0.00 | 84 | 1011.1 |
| 20260902051431 | 27 | 295 | 8.0 | 17.7 | 0.00 | 0.15 | 0.00 | 84 | 1011.1 |
| 20260902051332 | 27 | 210 | 9.7 | 17.7 | 0.00 | 0.15 | 0.00 | 84 | 1011.1 |
| 20260902051231 | 27 | 268 | 11.3 | 17.7 | 0.00 | 0.15 | 0.00 | 84 | 1011.1 |
| 20260902051132 | 27 | 261 | 12.9 | 17.7 | 0.00 | 0.15 | 0.00 | 84 | 1011.1 |
| 20260902051033 | 27 | 261 | 9.7 | 16.1 | 0.00 | 0.15 | 0.00 | 84 | 1011.2 |
| 20260902050931 | 27 | 271 | 9.7 | 16.1 | 0.00 | 0.15 | 0.00 | 84 | 1011.3 |
| 20260902050831 | 27 | 251 | 11.3 | 16.1 | 0.00 | 0.15 | 0.00 | 84 | 1011.3 |
| 20260902050731 | 27 | 248 | 9.7 | 16.1 | 0.00 | 0.15 | 0.00 | 84 | 1011.3 |
| 20260902050631 | 27 | 217 | 9.7 | 16.1 | 0.00 | 0.15 | 0.00 | 84 | 1011.4 |
| 20260902050531 | 27 | 227 | 9.7 | 16.1 | 0.00 | 0.15 | 0.00 | 84 | 1011.4 |
| 20260902050432 | 27 | 243 | 9.7 | 16.1 | 0.00 | 0.15 | 0.00 | 84 | 1011.5 |
| 20260902050331 | 27 | 264 | 9.7 | 16.1 | 0.00 | 0.15 | 0.00 | 84 | 1011.4 |
| 20260902050232 | 27 | 258 | 9.7 | 16.1 | 0.00 | 0.15 | 0.00 | 84 | 1011.5 |
| 20260902050131 | 27 | 250 | 9.7 | 16.1 | 0.00 | 0.15 | 0.00 | 84 | 1011.5 |
| 20260902050032 | 27 | 259 | 9.7 | 16.1 | 0.00 | 0.15 | 0.00 | 84 | 1011.4 |
| 20260902045931 | 27 | 251 | 9.7 | 16.1 | 0.00 | 0.15 | 0.15 | 84 | 1011.4 |
| 20260902045831 | 27 | 252 | 9.7 | 16.1 | 0.00 | 0.15 | 0.15 | 84 | 1011.4 |
| 20260902045732 | 27 | 221 | 9.7 | 16.1 | 0.00 | 0.15 | 0.15 | 84 | 1011.4 |
| 20260902045632 | 27 | 257 | 11.3 | 16.1 | 0.00 | 0.15 | 0.15 | 84 | 1011.4 |
| 20260902045531 | 27 | 250 | 9.7 | 16.1 | 0.00 | 0.15 | 0.15 | 84 | 1011.3 |
| 20260902045432 | 27 | 264 | 9.7 | 16.1 | 0.00 | 0.15 | 0.15 | 84 | 1011.3 |
| 20260902045332 | 27 | 264 | 9.7 | 16.1 | 0.00 | 0.15 | 0.15 | 84 | 1011.4 |
| 20260902045231 | 27 | 261 | 9.7 | 16.1 | 0.00 | 0.15 | 0.15 | 84 | 1011.4 |
| 20260902045131 | 27 | 227 | 9.7 | 16.1 | 0.00 | 0.15 | 0.15 | 84 | 1011.4 |
| 20260902045032 | 27 | 255 | 9.7 | 16.1 | 0.00 | 0.15 | 0.15 | 84 | 1011.4 |
| 20260902044931 | 27 | 231 | 8.0 | 14.5 | 0.00 | 0.15 | 0.15 | 84 | 1011.3 |
| 20260902044830 | 27 | 252 | 8.0 | 14.5 | 0.00 | 0.15 | 0.15 | 84 | 1011.4 |
| 20260902044732 | 27 | 0 | 8.0 | 14.5 | 0.00 | 0.15 | 0.15 | 84 | 1011.4 |
| 20260902044630 | 27 | 0 | 6.4 | 14.5 | 0.00 | 0.15 | 0.15 | 84 | 1011.4 |
| 20260902044530 | 27 | 0 | 6.4 | 14.5 | 0.00 | 0.15 | 0.15 | 84 | 1011.3 |
| 20260902044430 | 27 | 0 | 6.4 | 14.5 | 0.00 | 0.15 | 0.15 | 84 | 1011.4 |
| 20260902044332 | 27 | 0 | 8.0 | 14.5 | 0.00 | 0.15 | 0.15 | 84 | 1011.4 |
| 20260902044231 | 27 | 0 | 8.0 | 14.5 | 0.00 | 0.15 | 0.15 | 85 | 1011.4 |
| 20260902044132 | 27 | 0 | 8.0 | 11.3 | 0.00 | 0.15 | 0.15 | 85 | 1011.4 |
| 20260902044032 | 27 | 0 | 6.4 | 11.3 | 0.00 | 0.15 | 0.15 | 85 | 1011.4 |
| 20260902043930 | 27 | 0 | 6.4 | 11.3 | 0.00 | 0.15 | 0.15 | 85 | 1011.4 |
| 20260902043830 | 27 | 0 | 8.0 | 11.3 | 0.00 | 0.15 | 0.15 | 85 | 1011.4 |
| 20260902043729 | 27 | 0 | 8.0 | 11.3 | 0.00 | 0.15 | 0.15 | 85 | 1011.4 |
| 20260902043630 | 27 | 0 | 8.0 | 11.3 | 0.00 | 0.15 | 0.15 | 85 | 1011.4 |
| 20260902043531 | 27 | 0 | 8.0 | 11.3 | 0.00 | 0.15 | 0.15 | 85 | 1011.4 |
| 20260902043430 | 27 | 0 | 8.0 | 11.3 | 0.00 | 0.15 | 0.15 | 85 | 1011.4 |
| 20260902043330 | 27 | 0 | 8.0 | 11.3 | 0.00 | 0.15 | 0.15 | 85 | 1011.4 |
| 20260902043230 | 27 | 0 | 6.4 | 9.7 | 0.00 | 0.15 | 0.15 | 85 | 1011.4 |
| 20260902043129 | 27 | 0 | 6.4 | 9.7 | 0.00 | 0.15 | 0.15 | 85 | 1011.5 |
| 20260902043029 | 27 | 0 | 4.8 | 9.7 | 0.00 | 0.15 | 0.15 | 85 | 1011.5 |
| 20260902042929 | 27 | 0 | 3.2 | 9.7 | 0.00 | 0.15 | 0.15 | 85 | 1011.5 |
| 20260902042830 | 27 | 0 | 4.8 | 11.3 | 0.00 | 0.15 | 0.15 | 85 | 1011.6 |
| 20260902042730 | 27 | 0 | 4.8 | 14.5 | 0.00 | 0.15 | 0.15 | 85 | 1011.5 |
| 20260902042629 | 27 | 0 | 4.8 | 14.5 | 0.00 | 0.15 | 0.15 | 85 | 1011.6 |
| 20260902042530 | 27 | 0 | 6.4 | 14.5 | 0.00 | 0.15 | 0.15 | 85 | 1011.6 |
| 20260902042429 | 27 | 0 | 4.8 | 14.5 | 0.00 | 0.15 | 0.15 | 85 | 1011.5 |
| 20260902042329 | 27 | 0 | 6.4 | 14.5 | 0.00 | 0.15 | 0.15 | 85 | 1011.5 |
| 20260902042231 | 27 | 0 | 6.4 | 14.5 | 0.00 | 0.15 | 0.15 | 86 | 1011.5 |
| 20260902042130 | 27 | 0 | 6.4 | 14.5 | 0.00 | 0.15 | 0.15 | 86 | 1011.6 |
| 20260902042030 | 26 | 0 | 6.4 | 14.5 | 0.00 | 0.15 | 0.15 | 86 | 1011.5 |
| 20260902041929 | 27 | 0 | 8.0 | 14.5 | 0.00 | 0.15 | 0.15 | 86 | 1011.6 |
| 20260902041829 | 26 | 0 | 8.0 | 14.5 | 0.00 | 0.15 | 0.15 | 86 | 1011.5 |
| 20260902041730 | 26 | 0 | 6.4 | 11.3 | 0.00 | 0.15 | 0.15 | 86 | 1011.5 |
| 20260902041631 | 26 | 0 | 6.4 | 11.3 | 0.00 | 0.15 | 0.15 | 86 | 1011.5 |
| 20260902041530 | 26 | 0 | 8.0 | 11.3 | 0.00 | 0.15 | 0.15 | 86 | 1011.5 |
| 20260902041430 | 26 | 0 | 8.0 | 11.3 | 0.00 | 0.15 | 0.15 | 86 | 1011.6 |
| 20260902041329 | 26 | 0 | 6.4 | 11.3 | 0.00 | 0.15 | 0.15 | 86 | 1011.5 |
| 20260902041229 | 26 | 0 | 8.0 | 11.3 | 0.00 | 0.15 | 0.15 | 86 | 1011.5 |
| 20260902041131 | 26 | 0 | 6.4 | 14.5 | 0.00 | 0.15 | 0.15 | 86 | 1011.6 |
| 20260902041029 | 26 | 0 | 6.4 | 14.5 | 0.00 | 0.15 | 0.15 | 86 | 1011.6 |
| 20260902040929 | 26 | 0 | 6.4 | 14.5 | 0.00 | 0.15 | 0.15 | 86 | 1011.6 |
| 20260902040829 | 26 | 0 | 6.4 | 14.5 | 0.00 | 0.15 | 0.15 | 86 | 1011.7 |
| 20260902040729 | 26 | 0 | 6.4 | 14.5 | 0.00 | 0.15 | 0.15 | 87 | 1011.7 |
| 20260902040631 | 26 | 0 | 6.4 | 14.5 | 0.00 | 0.15 | 0.15 | 87 | 1011.7 |
| 20260902040529 | 26 | 0 | 8.0 | 14.5 | 0.00 | 0.15 | 0.15 | 87 | 1011.6 |
| 20260902040431 | 26 | 0 | 8.0 | 14.5 | 0.00 | 0.15 | 0.15 | 87 | 1011.6 |
| 20260902040330 | 26 | 0 | 8.0 | 14.5 | 0.00 | 0.15 | 0.15 | 87 | 1011.6 |
| 20260902040229 | 26 | 0 | 8.0 | 14.5 | 0.00 | 0.15 | 0.15 | 87 | 1011.6 |
| 20260902040129 | 26 | 0 | 8.0 | 11.3 | 0.00 | 0.15 | 0.15 | 87 | 1011.5 |
| 20260902040030 | 26 | 0 | 8.0 | 11.3 | 0.00 | 0.15 | 0.15 | 87 | 1011.6 |
| 20260902035931 | 26 | 0 | 6.4 | 11.3 | 0.00 | 0.15 | 0.15 | 87 | 1011.6 |
| 20260902035830 | 26 | 0 | 6.4 | 11.3 | 0.00 | 0.15 | 0.15 | 87 | 1011.6 |
| 20260902035730 | 26 | 0 | 6.4 | 11.3 | 0.00 | 0.15 | 0.15 | 87 | 1011.5 |
| 20260902035629 | 26 | 0 | 6.4 | 11.3 | 0.00 | 0.15 | 0.15 | 87 | 1011.6 |
| 20260902035529 | 26 | 0 | 6.4 | 11.3 | 0.00 | 0.15 | 0.15 | 88 | 1011.5 |
| 20260902035429 | 26 | 0 | 6.4 | 11.3 | 0.00 | 0.15 | 0.15 | 88 | 1011.5 |
| 20260902035328 | 26 | 0 | 6.4 | 11.3 | 0.00 | 0.15 | 0.15 | 88 | 1011.6 |
| 20260902035228 | 26 | 0 | 6.4 | 11.3 | 0.00 | 0.15 | 0.15 | 88 | 1011.6 |
| 20260902035129 | 26 | 0 | 4.8 | 8.0 | 0.00 | 0.15 | 0.15 | 88 | 1011.6 |
| 20260902035030 | 26 | 0 | 4.8 | 8.0 | 0.00 | 0.15 | 0.15 | 88 | 1011.7 |
| 20260902034929 | 26 | 0 | 4.8 | 8.0 | 0.00 | 0.15 | 0.15 | 88 | 1011.7 |
| 20260902034829 | 26 | 0 | 3.2 | 8.0 | 0.00 | 0.15 | 0.15 | 88 | 1011.7 |
| 20260902034730 | 26 | 0 | 3.2 | 6.4 | 0.00 | 0.15 | 0.15 | 88 | 1011.7 |
| 20260902034628 | 26 | 0 | 4.8 | 8.0 | 0.00 | 0.15 | 0.15 | 88 | 1011.7 |
| 20260902034528 | 26 | 0 | 3.2 | 8.0 | 0.00 | 0.15 | 0.15 | 88 | 1011.7 |
| 20260902034428 | 26 | 0 | 4.8 | 8.0 | 0.00 | 0.15 | 0.15 | 88 | 1011.8 |
| 20260902034329 | 26 | 0 | 4.8 | 8.0 | 0.00 | 0.15 | 0.15 | 88 | 1011.7 |
| 20260902034228 | 26 | 0 | 4.8 | 8.0 | 0.00 | 0.15 | 0.15 | 88 | 1011.7 |
| 20260902034128 | 26 | 0 | 4.8 | 8.0 | 0.00 | 0.15 | 0.15 | 88 | 1011.7 |
| 20260902034029 | 26 | 0 | 3.2 | 9.7 | 0.00 | 0.15 | 0.15 | 88 | 1011.6 |
| 20260902033928 | 26 | 0 | 3.2 | 9.7 | 0.00 | 0.15 | 0.15 | 88 | 1011.6 |
| 20260902033829 | 26 | 0 | 4.8 | 9.7 | 0.00 | 0.15 | 0.15 | 88 | 1011.6 |
| 20260902033728 | 26 | 0 | 4.8 | 9.7 | 0.00 | 0.15 | 0.15 | 88 | 1011.4 |
| 20260902033629 | 26 | 0 | 3.2 | 9.7 | 0.00 | 0.15 | 0.15 | 88 | 1011.5 |
| 20260902033530 | 26 | 0 | 4.8 | 9.7 | 0.00 | 0.15 | 0.15 | 88 | 1011.4 |
| 20260902033428 | 26 | 0 | 4.8 | 9.7 | 0.00 | 0.15 | 0.15 | 88 | 1011.5 |
| 20260902033329 | 26 | 0 | 4.8 | 9.7 | 0.00 | 0.15 | 0.15 | 88 | 1011.5 |
| 20260902033228 | 26 | 0 | 6.4 | 9.7 | 0.00 | 0.15 | 0.15 | 89 | 1011.5 |
| 20260902033130 | 26 | 0 | 4.8 | 9.7 | 0.00 | 0.15 | 0.15 | 89 | 1011.5 |
| 20260902033029 | 26 | 0 | 4.8 | 8.0 | 0.00 | 0.15 | 0.15 | 89 | 1011.5 |
| 20260902032928 | 26 | 0 | 4.8 | 8.0 | 0.00 | 0.15 | 0.15 | 89 | 1011.6 |
| 20260902032828 | 26 | 0 | 3.2 | 8.0 | 0.00 | 0.15 | 0.15 | 89 | 1011.6 |
| 20260902032728 | 26 | 0 | 4.8 | 8.0 | 0.00 | 0.15 | 0.15 | 89 | 1011.6 |
| 20260902032627 | 26 | 0 | 6.4 | 8.0 | 0.00 | 0.15 | 0.15 | 89 | 1011.6 |
| 20260902032528 | 26 | 0 | 4.8 | 8.0 | 0.00 | 0.15 | 0.15 | 89 | 1011.6 |
| 20260902032429 | 26 | 0 | 4.8 | 8.0 | 0.00 | 0.15 | 0.15 | 89 | 1011.7 |
| 20260902032328 | 26 | 0 | 4.8 | 8.0 | 0.00 | 0.15 | 0.15 | 89 | 1011.7 |
| 20260902032230 | 26 | 0 | 6.4 | 8.0 | 0.00 | 0.15 | 0.15 | 89 | 1011.7 |
| 20260902032128 | 26 | 0 | 4.8 | 8.0 | 0.00 | 0.15 | 0.15 | 89 | 1011.7 |
| 20260902032028 | 26 | 0 | 4.8 | 8.0 | 0.00 | 0.15 | 0.15 | 89 | 1011.7 |
| 20260902031929 | 26 | 0 | 4.8 | 8.0 | 0.00 | 0.15 | 0.15 | 89 | 1011.7 |
| 20260902031829 | 26 | 0 | 3.2 | 8.0 | 0.00 | 0.15 | 0.15 | 89 | 1011.8 |
| 20260902031727 | 26 | 0 | 4.8 | 8.0 | 0.00 | 0.15 | 0.15 | 89 | 1011.8 |
| 20260902031629 | 26 | 0 | 4.8 | 8.0 | 0.00 | 0.15 | 0.15 | 89 | 1011.8 |
| 20260902031528 | 26 | 0 | 4.8 | 8.0 | 0.00 | 0.15 | 0.15 | 89 | 1011.7 |
| 20260902031428 | 26 | 0 | 4.8 | 8.0 | 0.00 | 0.15 | 0.15 | 89 | 1011.8 |
| 20260902031327 | 26 | 0 | 3.2 | 6.4 | 0.00 | 0.15 | 0.15 | 89 | 1011.7 |
| 20260902031229 | 26 | 0 | 3.2 | 6.4 | 0.00 | 0.15 | 0.15 | 89 | 1011.7 |
| 20260902031128 | 26 | 0 | 3.2 | 6.4 | 0.00 | 0.15 | 0.15 | 89 | 1011.7 |
| 20260902031027 | 26 | 0 | 3.2 | 8.0 | 0.00 | 0.15 | 0.15 | 89 | 1011.6 |
| 20260902030927 | 26 | 0 | 3.2 | 8.0 | 0.00 | 0.15 | 0.15 | 89 | 1011.5 |
| 20260902030827 | 26 | 0 | 3.2 | 8.0 | 0.00 | 0.15 | 0.15 | 89 | 1011.7 |
| 20260902030729 | 26 | 0 | 3.2 | 8.0 | 0.00 | 0.15 | 0.15 | 89 | 1011.6 |
| 20260902030628 | 26 | 0 | 3.2 | 8.0 | 0.00 | 0.15 | 0.15 | 89 | 1011.6 |
| 20260902030529 | 26 | 0 | 4.8 | 8.0 | 0.00 | 0.15 | 0.15 | 89 | 1011.6 |
| 20260902030427 | 26 | 0 | 4.8 | 8.0 | 0.00 | 0.15 | 0.15 | 89 | 1011.6 |
| 20260902030327 | 26 | 0 | 4.8 | 9.7 | 0.00 | 0.15 | 0.15 | 89 | 1011.5 |
| 20260902030229 | 26 | 0 | 6.4 | 9.7 | 0.00 | 0.15 | 0.15 | 89 | 1011.5 |
| 20260902030129 | 26 | 0 | 4.8 | 9.7 | 0.00 | 0.15 | 0.15 | 89 | 1011.6 |
| 20260902030029 | 26 | 0 | 3.2 | 9.7 | 0.00 | 0.15 | 0.15 | 89 | 1011.5 |
| 20260902025927 | 26 | 0 | 3.2 | 9.7 | 0.00 | 0.15 | 0.15 | 89 | 1011.5 |
| 20260902025829 | 26 | 0 | 3.2 | 9.7 | 0.00 | 0.15 | 0.15 | 89 | 1011.5 |
| 20260902025727 | 26 | 0 | 4.8 | 9.7 | 0.00 | 0.15 | 0.15 | 89 | 1011.5 |
| 20260902025627 | 26 | 0 | 4.8 | 9.7 | 0.00 | 0.15 | 0.15 | 89 | 1011.4 |
| 20260902025528 | 26 | 0 | 6.4 | 9.7 | 0.00 | 0.15 | 0.15 | 89 | 1011.4 |
| 20260902025429 | 26 | 0 | 6.4 | 9.7 | 0.00 | 0.15 | 0.15 | 89 | 1011.4 |
| 20260902025327 | 26 | 0 | 4.8 | 8.0 | 0.00 | 0.15 | 0.15 | 89 | 1011.4 |
| 20260902025227 | 26 | 0 | 4.8 | 4.8 | 0.00 | 0.15 | 0.15 | 90 | 1011.3 |
| 20260902025128 | 26 | 0 | 1.6 | 4.8 | 0.00 | 0.15 | 0.15 | 90 | 1011.4 |
| 20260902025029 | 26 | 0 | 1.6 | 4.8 | 0.00 | 0.15 | 0.15 | 90 | 1011.4 |
| 20260902024928 | 26 | 0 | 1.6 | 4.8 | 0.00 | 0.15 | 0.15 | 90 | 1011.4 |
| 20260902024829 | 26 | 0 | 1.6 | 4.8 | 0.00 | 0.15 | 0.15 | 90 | 1011.4 |
| 20260902024728 | 26 | 0 | 3.2 | 6.4 | 0.00 | 0.15 | 0.15 | 89 | 1011.3 |
| 20260902024627 | 26 | 0 | 3.2 | 6.4 | 0.00 | 0.15 | 0.15 | 89 | 1011.2 |
| 20260902024529 | 26 | 0 | 3.2 | 6.4 | 0.00 | 0.15 | 0.15 | 89 | 1011.2 |
| 20260902024427 | 26 | 0 | 1.6 | 6.4 | 0.00 | 0.15 | 0.15 | 89 | 1011.2 |
| 20260902024328 | 26 | 0 | 3.2 | 6.4 | 0.00 | 0.15 | 0.15 | 89 | 1011.1 |
| 20260902024227 | 26 | 0 | 3.2 | 8.0 | 0.00 | 0.15 | 0.15 | 89 | 1011.1 |
| 20260902024128 | 26 | 0 | 3.2 | 8.0 | 0.00 | 0.15 | 0.15 | 89 | 1011.1 |
| 20260902024027 | 26 | 0 | 3.2 | 8.0 | 0.00 | 0.15 | 0.15 | 89 | 1011.1 |
| 20260902023926 | 26 | 0 | 3.2 | 8.0 | 0.00 | 0.15 | 0.15 | 89 | 1011.1 |
| 20260902023828 | 26 | 0 | 4.8 | 8.0 | 0.00 | 0.15 | 0.15 | 89 | 1011.0 |
| 20260902023728 | 26 | 0 | 4.8 | 8.0 | 0.00 | 0.15 | 0.15 | 89 | 1011.1 |
| 20260902023626 | 26 | 0 | 3.2 | 8.0 | 0.00 | 0.15 | 0.15 | 89 | 1011.0 |
| 20260902023526 | 26 | 0 | 4.8 | 8.0 | 0.00 | 0.15 | 0.15 | 89 | 1011.0 |
| 20260902023429 | 26 | 0 | 4.8 | 8.0 | 0.00 | 0.15 | 0.15 | 89 | 1011.0 |
| 20260902023327 | 26 | 0 | 4.8 | 8.0 | 0.00 | 0.15 | 0.15 | 89 | 1011.0 |
| 20260902023229 | 26 | 0 | 4.8 | 6.4 | 0.00 | 0.15 | 0.15 | 89 | 1010.9 |
| 20260902023127 | 26 | 0 | 4.8 | 6.4 | 0.00 | 0.15 | 0.15 | 90 | 1010.8 |
| 20260902023027 | 26 | 0 | 3.2 | 6.4 | 0.00 | 0.15 | 0.15 | 90 | 1010.8 |
| 20260902022926 | 26 | 0 | 3.2 | 6.4 | 0.00 | 0.15 | 0.15 | 90 | 1010.8 |
| 20260902022826 | 26 | 0 | 3.2 | 6.4 | 0.00 | 0.15 | 0.15 | 90 | 1010.7 |
| 20260902022727 | 26 | 0 | 3.2 | 6.4 | 0.00 | 0.15 | 0.15 | 90 | 1010.8 |
| 20260902022627 | 26 | 0 | 4.8 | 6.4 | 0.00 | 0.15 | 0.15 | 90 | 1010.8 |
| 20260902022527 | 26 | 0 | 4.8 | 6.4 | 0.00 | 0.15 | 0.15 | 90 | 1010.8 |
| 20260902022426 | 26 | 0 | 4.8 | 6.4 | 0.00 | 0.15 | 0.15 | 90 | 1010.8 |
| 20260902022327 | 26 | 0 | 3.2 | 6.4 | 0.00 | 0.15 | 0.15 | 90 | 1010.9 |
| 20260902022227 | 26 | 0 | 3.2 | 6.4 | 0.00 | 0.15 | 0.15 | 90 | 1010.8 |
| 20260902022126 | 26 | 0 | 4.8 | 6.4 | 0.00 | 0.15 | 0.15 | 90 | 1010.7 |
| 20260902022028 | 26 | 0 | 4.8 | 6.4 | 0.00 | 0.15 | 0.15 | 90 | 1010.8 |
| 20260902021927 | 26 | 0 | 3.2 | 6.4 | 0.00 | 0.15 | 0.15 | 90 | 1010.8 |
| 20260902021826 | 26 | 0 | 3.2 | 6.4 | 0.00 | 0.15 | 0.15 | 90 | 1010.8 |
| 20260902021727 | 26 | 0 | 3.2 | 6.4 | 0.00 | 0.15 | 0.15 | 90 | 1010.7 |
| 20260902021628 | 26 | 0 | 3.2 | 6.4 | 0.00 | 0.15 | 0.15 | 90 | 1010.7 |
| 20260902021526 | 26 | 0 | 3.2 | 6.4 | 0.00 | 0.15 | 0.15 | 90 | 1010.6 |
| 20260902021426 | 26 | 0 | 3.2 | 4.8 | 0.00 | 0.15 | 0.15 | 90 | 1010.7 |
| 20260902021328 | 26 | 0 | 3.2 | 4.8 | 0.00 | 0.15 | 0.15 | 90 | 1010.7 |
| 20260902021227 | 26 | 0 | 1.6 | 4.8 | 0.00 | 0.15 | 0.15 | 90 | 1010.6 |
| 20260902021126 | 26 | 0 | 3.2 | 6.4 | 0.00 | 0.15 | 0.15 | 90 | 1010.6 |
| 20260902021029 | 26 | 0 | 3.2 | 6.4 | 0.00 | 0.15 | 0.15 | 90 | 1010.6 |
| 20260902020926 | 26 | 0 | 3.2 | 6.4 | 0.00 | 0.15 | 0.15 | 90 | 1010.5 |
| 20260902020827 | 26 | 0 | 3.2 | 6.4 | 0.00 | 0.15 | 0.15 | 90 | 1010.5 |
| 20260902020726 | 26 | 0 | 3.2 | 6.4 | 0.00 | 0.15 | 0.15 | 90 | 1010.6 |
| 20260902020629 | 26 | 0 | 3.2 | 6.4 | 0.00 | 0.15 | 0.15 | 90 | 1010.6 |
| 20260902020526 | 26 | 0 | 3.2 | 6.4 | 0.00 | 0.15 | 0.15 | 90 | 1010.5 |
| 20260902020426 | 26 | 0 | 3.2 | 6.4 | 0.00 | 0.15 | 0.15 | 90 | 1010.5 |
| 20260902020327 | 26 | 0 | 3.2 | 6.4 | 0.00 | 0.15 | 0.15 | 90 | 1010.5 |
| 20260902020227 | 26 | 0 | 4.8 | 8.0 | 0.00 | 0.15 | 0.15 | 90 | 1010.5 |
| 20260902020126 | 26 | 0 | 4.8 | 8.0 | 0.00 | 0.15 | 0.15 | 90 | 1010.4 |
| 20260902020027 | 26 | 0 | 3.2 | 8.0 | 0.00 | 0.15 | 0.15 | 90 | 1010.5 |
| 20260902015929 | 26 | 0 | 3.2 | 8.0 | 0.00 | 0.15 | 0.15 | 90 | 1010.4 |
| 20260902015827 | 26 | 0 | 3.2 | 8.0 | 0.00 | 0.15 | 0.15 | 90 | 1010.4 |
| 20260902015726 | 26 | 0 | 4.8 | 8.0 | 0.00 | 0.15 | 0.15 | 90 | 1010.3 |
| 20260902015627 | 26 | 0 | 4.8 | 8.0 | 0.00 | 0.15 | 0.15 | 90 | 1010.3 |
| 20260902015525 | 26 | 0 | 4.8 | 8.0 | 0.00 | 0.15 | 0.15 | 90 | 1010.3 |
| 20260902015427 | 26 | 0 | 4.8 | 8.0 | 0.00 | 0.15 | 0.15 | 90 | 1010.4 |
| 20260902015327 | 26 | 0 | 4.8 | 8.0 | 0.00 | 0.15 | 0.15 | 90 | 1010.4 |
| 20260902015227 | 26 | 0 | 4.8 | 6.4 | 0.00 | 0.15 | 0.15 | 90 | 1010.4 |
| 20260902015125 | 26 | 0 | 3.2 | 6.4 | 0.00 | 0.15 | 0.15 | 90 | 1010.4 |
| 20260902015026 | 26 | 0 | 3.2 | 6.4 | 0.00 | 0.15 | 0.15 | 90 | 1010.4 |
| 20260902014927 | 26 | 0 | 4.8 | 6.4 | 0.00 | 0.15 | 0.15 | 90 | 1010.4 |
| 20260902014826 | 26 | 0 | 4.8 | 6.4 | 0.00 | 0.15 | 0.15 | 90 | 1010.4 |
| 20260902014727 | 26 | 0 | 4.8 | 6.4 | 0.00 | 0.15 | 0.15 | 91 | 1010.4 |
| 20260902014626 | 26 | 0 | 3.2 | 6.4 | 0.00 | 0.15 | 0.15 | 91 | 1010.4 |
| 20260902014526 | 26 | 0 | 3.2 | 6.4 | 0.00 | 0.15 | 0.15 | 91 | 1010.4 |
| 20260902014425 | 26 | 0 | 3.2 | 6.4 | 0.00 | 0.15 | 0.15 | 91 | 1010.4 |
| 20260902014325 | 26 | 0 | 3.2 | 6.4 | 0.00 | 0.15 | 0.15 | 91 | 1010.5 |
| 20260902014227 | 26 | 0 | 3.2 | 6.4 | 0.00 | 0.15 | 0.15 | 91 | 1010.4 |
| 20260902014126 | 26 | 0 | 3.2 | 6.4 | 0.00 | 0.15 | 0.15 | 91 | 1010.4 |
| 20260902014025 | 26 | 0 | 3.2 | 6.4 | 0.00 | 0.15 | 0.15 | 91 | 1010.4 |
| 20260902013926 | 26 | 0 | 3.2 | 6.4 | 0.00 | 0.15 | 0.15 | 91 | 1010.3 |
| 20260902013827 | 26 | 0 | 3.2 | 6.4 | 0.00 | 0.15 | 0.15 | 91 | 1010.3 |
| 20260902013727 | 26 | 0 | 3.2 | 6.4 | 0.00 | 0.15 | 0.15 | 91 | 1010.3 |
| 20260902013627 | 26 | 0 | 3.2 | 6.4 | 0.00 | 0.15 | 0.15 | 91 | 1010.3 |
| 20260902013527 | 26 | 0 | 3.2 | 4.8 | 0.00 | 0.15 | 0.15 | 91 | 1010.3 |
| 20260902013426 | 26 | 0 | 3.2 | 4.8 | 0.00 | 0.15 | 0.15 | 91 | 1010.2 |
| 20260902013326 | 26 | 0 | 3.2 | 4.8 | 0.00 | 0.15 | 0.15 | 91 | 1010.3 |
| 20260902013227 | 26 | 0 | 3.2 | 4.8 | 0.00 | 0.15 | 0.15 | 91 | 1010.2 |
| 20260902013126 | 26 | 0 | 3.2 | 4.8 | 0.00 | 0.15 | 0.15 | 91 | 1010.2 |
| 20260902013026 | 26 | 0 | 3.2 | 6.4 | 0.00 | 0.15 | 0.15 | 91 | 1010.2 |
| 20260902012926 | 26 | 0 | 3.2 | 6.4 | 0.00 | 0.15 | 0.15 | 91 | 1010.3 |
| 20260902012826 | 26 | 0 | 3.2 | 6.4 | 0.00 | 0.15 | 0.15 | 91 | 1010.3 |
| 20260902012726 | 26 | 0 | 3.2 | 6.4 | 0.00 | 0.15 | 0.15 | 91 | 1010.2 |
| 20260902012626 | 26 | 0 | 3.2 | 8.0 | 0.00 | 0.15 | 0.15 | 91 | 1010.3 |
| 20260902012527 | 26 | 0 | 3.2 | 8.0 | 0.00 | 0.15 | 0.15 | 91 | 1010.3 |
| 20260902012425 | 26 | 0 | 3.2 | 8.0 | 0.00 | 0.15 | 0.15 | 91 | 1010.3 |
| 20260902012325 | 26 | 0 | 3.2 | 8.0 | 0.00 | 0.15 | 0.15 | 91 | 1010.2 |
| 20260902012225 | 26 | 0 | 3.2 | 8.0 | 0.00 | 0.15 | 0.15 | 91 | 1010.2 |
| 20260902012127 | 26 | 0 | 3.2 | 8.0 | 0.00 | 0.15 | 0.15 | 91 | 1010.3 |
| 20260902012025 | 26 | 0 | 3.2 | 8.0 | 0.00 | 0.15 | 0.15 | 91 | 1010.2 |
| 20260902011925 | 26 | 0 | 4.8 | 8.0 | 0.00 | 0.15 | 0.15 | 91 | 1010.3 |
| 20260902011826 | 26 | 0 | 6.4 | 8.0 | 0.00 | 0.15 | 0.15 | 91 | 1010.2 |
| 20260902011726 | 26 | 0 | 4.8 | 8.0 | 0.00 | 0.15 | 0.15 | 91 | 1010.2 |
| 20260902011626 | 26 | 0 | 4.8 | 6.4 | 0.00 | 0.15 | 0.15 | 91 | 1010.2 |
| 20260902011524 | 26 | 0 | 3.2 | 6.4 | 0.00 | 0.15 | 0.15 | 91 | 1010.2 |
| 20260902011426 | 26 | 0 | 3.2 | 6.4 | 0.00 | 0.15 | 0.15 | 91 | 1010.1 |
| 20260902011326 | 26 | 0 | 3.2 | 6.4 | 0.00 | 0.15 | 0.15 | 91 | 1010.2 |
| 20260902011226 | 26 | 0 | 3.2 | 4.8 | 0.00 | 0.15 | 0.15 | 91 | 1010.2 |
| 20260902011127 | 26 | 0 | 3.2 | 4.8 | 0.00 | 0.15 | 0.15 | 91 | 1010.2 |
| 20260902011025 | 26 | 0 | 3.2 | 4.8 | 0.00 | 0.15 | 0.15 | 91 | 1010.2 |
| 20260902010925 | 26 | 0 | 3.2 | 4.8 | 0.00 | 0.15 | 0.15 | 91 | 1010.2 |
| 20260902010826 | 26 | 0 | 3.2 | 4.8 | 0.00 | 0.15 | 0.15 | 91 | 1010.1 |
| 20260902010726 | 26 | 0 | 3.2 | 6.4 | 0.00 | 0.15 | 0.15 | 91 | 1010.1 |
| 20260902010625 | 26 | 0 | 3.2 | 6.4 | 0.00 | 0.15 | 0.15 | 91 | 1010.1 |
| 20260902010524 | 26 | 0 | 3.2 | 6.4 | 0.00 | 0.15 | 0.15 | 91 | 1010.1 |
| 20260902010426 | 26 | 0 | 3.2 | 6.4 | 0.00 | 0.15 | 0.15 | 91 | 1010.2 |
| 20260902010325 | 26 | 0 | 3.2 | 6.4 | 0.00 | 0.15 | 0.15 | 92 | 1010.1 |
| 20260902010224 | 26 | 0 | 1.6 | 6.4 | 0.00 | 0.15 | 0.15 | 92 | 1010.1 |
| 20260902010124 | 26 | 0 | 3.2 | 6.4 | 0.00 | 0.15 | 0.15 | 92 | 1010.1 |
| 20260902010025 | 26 | 0 | 3.2 | 6.4 | 0.00 | 0.15 | 0.15 | 91 | 1010.2 |
| 20260902005924 | 26 | 0 | 3.2 | 6.4 | 0.00 | 0.15 | 0.15 | 92 | 1010.2 |
| 20260902005824 | 26 | 282 | 4.8 | 6.4 | 0.00 | 0.15 | 0.15 | 92 | 1010.2 |
| 20260902005725 | 26 | 286 | 3.2 | 6.4 | 0.00 | 0.15 | 0.15 | 92 | 1010.2 |
| 20260902005624 | 26 | 288 | 3.2 | 6.4 | 0.00 | 0.15 | 0.15 | 92 | 1010.2 |
| 20260902005526 | 26 | 289 | 3.2 | 6.4 | 0.00 | 0.15 | 0.15 | 92 | 1010.1 |
| 20260902005425 | 26 | 292 | 3.2 | 6.4 | 0.00 | 0.15 | 0.15 | 92 | 1010.2 |
| 20260902005325 | 26 | 292 | 3.2 | 6.4 | 0.00 | 0.15 | 0.15 | 92 | 1010.1 |
| 20260902005224 | 26 | 293 | 3.2 | 6.4 | 0.00 | 0.15 | 0.15 | 92 | 1010.1 |
| 20260902005124 | 26 | 293 | 3.2 | 6.4 | 0.00 | 0.15 | 0.15 | 92 | 1010.1 |
| 20260902005026 | 26 | 306 | 1.6 | 6.4 | 0.00 | 0.15 | 0.15 | 92 | 1010.1 |
| 20260902004924 | 26 | 306 | 3.2 | 6.4 | 0.00 | 0.15 | 0.15 | 92 | 1010.2 |
| 20260902004824 | 26 | 306 | 3.2 | 6.4 | 0.00 | 0.15 | 0.15 | 92 | 1010.2 |
| 20260902004724 | 26 | 309 | 3.2 | 6.4 | 0.00 | 0.15 | 0.15 | 92 | 1010.1 |
| 20260902004626 | 26 | 310 | 3.2 | 6.4 | 0.00 | 0.15 | 0.15 | 92 | 1010.2 |
| 20260902004525 | 26 | 310 | 3.2 | 6.4 | 0.00 | 0.15 | 0.15 | 92 | 1010.2 |
| 20260902004424 | 26 | 312 | 3.2 | 6.4 | 0.00 | 0.15 | 0.15 | 92 | 1010.3 |
| 20260902004325 | 26 | 310 | 3.2 | 6.4 | 0.00 | 0.15 | 0.15 | 92 | 1010.3 |
| 20260902004224 | 26 | 289 | 3.2 | 6.4 | 0.00 | 0.15 | 0.15 | 92 | 1010.4 |
| 20260902004125 | 26 | 312 | 3.2 | 6.4 | 0.00 | 0.15 | 0.15 | 92 | 1010.3 |
| 20260902004025 | 26 | 312 | 3.2 | 6.4 | 0.00 | 0.15 | 0.15 | 92 | 1010.4 |
| 20260902003924 | 26 | 306 | 3.2 | 6.4 | 0.00 | 0.15 | 0.15 | 92 | 1010.4 |
| 20260902003824 | 26 | 312 | 3.2 | 6.4 | 0.00 | 0.15 | 0.15 | 92 | 1010.4 |
| 20260902003724 | 26 | 292 | 3.2 | 6.4 | 0.00 | 0.15 | 0.15 | 92 | 1010.4 |
| 20260902003627 | 26 | 295 | 3.2 | 6.4 | 0.00 | 0.15 | 0.15 | 92 | 1010.4 |
| 20260902003525 | 26 | 295 | 3.2 | 6.4 | 0.00 | 0.15 | 0.15 | 92 | 1010.3 |
| 20260902003426 | 26 | 296 | 3.2 | 6.4 | 0.00 | 0.15 | 0.15 | 92 | 1010.4 |
| 20260902003325 | 26 | 293 | 3.2 | 8.0 | 0.00 | 0.15 | 0.15 | 91 | 1010.4 |
| 20260902003225 | 26 | 292 | 3.2 | 8.0 | 0.00 | 0.15 | 0.15 | 91 | 1010.4 |
| 20260902003124 | 26 | 293 | 3.2 | 8.0 | 0.00 | 0.15 | 0.15 | 91 | 1010.3 |
| 20260902003025 | 26 | 293 | 3.2 | 8.0 | 0.00 | 0.15 | 0.15 | 91 | 1010.3 |
| 20260902002925 | 26 | 286 | 3.2 | 8.0 | 0.00 | 0.15 | 0.15 | 91 | 1010.4 |
| 20260902002824 | 26 | 286 | 3.2 | 8.0 | 0.00 | 0.15 | 0.15 | 91 | 1010.4 |
| 20260902002724 | 26 | 286 | 3.2 | 8.0 | 0.00 | 0.15 | 0.15 | 91 | 1010.3 |
| 20260902002626 | 26 | 288 | 3.2 | 8.0 | 0.00 | 0.15 | 0.15 | 91 | 1010.3 |
| 20260902002525 | 26 | 288 | 4.8 | 9.7 | 0.00 | 0.15 | 0.15 | 91 | 1010.4 |
| 20260902002423 | 26 | 289 | 4.8 | 9.7 | 0.00 | 0.15 | 0.15 | 91 | 1010.4 |
| 20260902002324 | 26 | 293 | 4.8 | 9.7 | 0.00 | 0.15 | 0.15 | 91 | 1010.4 |
| 20260902002224 | 26 | 295 | 4.8 | 9.7 | 0.00 | 0.15 | 0.15 | 91 | 1010.4 |
| 20260902002124 | 26 | 298 | 4.8 | 9.7 | 0.00 | 0.15 | 0.15 | 91 | 1010.3 |
| 20260902002024 | 26 | 298 | 3.2 | 9.7 | 0.00 | 0.15 | 0.15 | 91 | 1010.5 |
| 20260902001924 | 26 | 296 | 3.2 | 9.7 | 0.00 | 0.15 | 0.15 | 91 | 1010.5 |
| 20260902001825 | 26 | 298 | 4.8 | 9.7 | 0.00 | 0.15 | 0.15 | 91 | 1010.5 |
| 20260902001723 | 26 | 300 | 4.8 | 9.7 | 0.00 | 0.15 | 0.15 | 91 | 1010.5 |
| 20260902001623 | 26 | 300 | 4.8 | 9.7 | 0.00 | 0.15 | 0.15 | 91 | 1010.6 |
| 20260902001524 | 26 | 290 | 4.8 | 8.0 | 0.00 | 0.15 | 0.15 | 91 | 1010.5 |
| 20260902001423 | 26 | 292 | 4.8 | 8.0 | 0.00 | 0.15 | 0.15 | 91 | 1010.5 |
| 20260902001323 | 26 | 292 | 4.8 | 8.0 | 0.00 | 0.15 | 0.15 | 91 | 1010.5 |
| 20260902001225 | 26 | 292 | 6.4 | 8.0 | 0.00 | 0.15 | 0.15 | 91 | 1010.5 |
| 20260902001124 | 26 | 310 | 4.8 | 8.0 | 0.00 | 0.15 | 0.15 | 91 | 1010.5 |
| 20260902001023 | 26 | 283 | 4.8 | 8.0 | 0.00 | 0.15 | 0.15 | 91 | 1010.4 |
| 20260902000923 | 26 | 288 | 4.8 | 8.0 | 0.00 | 0.15 | 0.15 | 91 | 1010.5 |
| 20260902000825 | 26 | 305 | 4.8 | 8.0 | 0.00 | 0.15 | 0.15 | 91 | 1010.5 |
| 20260902000724 | 26 | 309 | 4.8 | 8.0 | 0.00 | 0.15 | 0.15 | 91 | 1010.5 |
| 20260902000625 | 26 | 299 | 6.4 | 8.0 | 0.00 | 0.15 | 0.15 | 91 | 1010.5 |
| 20260902000525 | 26 | 302 | 4.8 | 8.0 | 0.00 | 0.15 | 0.15 | 91 | 1010.4 |
| 20260902000424 | 26 | 309 | 3.2 | 8.0 | 0.00 | 0.15 | 0.15 | 91 | 1010.4 |
| 20260902000325 | 26 | 307 | 3.2 | 8.0 | 0.00 | 0.15 | 0.15 | 91 | 1010.5 |
| 20260902000226 | 26 | 309 | 4.8 | 8.0 | 0.00 | 0.15 | 0.15 | 91 | 1010.4 |
| 20260902000125 | 26 | 309 | 4.8 | 8.0 | 0.00 | 0.15 | 0.15 | 91 | 1010.4 |
| 20260902000024 | 26 | 302 | 6.4 | 8.0 | 0.00 | 0.15 | 0.15 | 90 | 1010.4 |
| 20260901235923 | 26 | 302 | 4.8 | 8.0 | 0.00 | 0.15 | 0.15 | 90 | 1010.4 |
| 20260901235825 | 26 | 269 | 4.8 | 8.0 | 0.00 | 0.15 | 0.15 | 90 | 1010.4 |
| 20260901235723 | 26 | 279 | 4.8 | 8.0 | 0.00 | 0.15 | 0.15 | 90 | 1010.3 |
| 20260901235623 | 26 | 298 | 4.8 | 8.0 | 0.00 | 0.15 | 0.15 | 90 | 1010.3 |
| 20260901235523 | 26 | 298 | 4.8 | 8.0 | 0.00 | 0.15 | 0.15 | 90 | 1010.3 |
| 20260901235423 | 26 | 279 | 4.8 | 8.0 | 0.00 | 0.15 | 0.15 | 90 | 1010.3 |
| 20260901235323 | 26 | 278 | 6.4 | 8.0 | 0.00 | 0.15 | 0.15 | 90 | 1010.4 |
| 20260901235223 | 26 | 276 | 4.8 | 8.0 | 0.00 | 0.15 | 0.15 | 90 | 1010.4 |
| 20260901235124 | 26 | 302 | 4.8 | 8.0 | 0.00 | 0.15 | 0.15 | 90 | 1010.4 |
| 20260901235023 | 26 | 299 | 3.2 | 8.0 | 0.00 | 0.15 | 0.15 | 90 | 1010.4 |
| 20260901234923 | 26 | 274 | 3.2 | 8.0 | 0.00 | 0.15 | 0.15 | 90 | 1010.4 |
| 20260901234824 | 26 | 274 | 3.2 | 8.0 | 0.00 | 0.15 | 0.15 | 90 | 1010.4 |
| 20260901234724 | 26 | 285 | 3.2 | 8.0 | 0.00 | 0.15 | 0.15 | 90 | 1010.4 |
| 20260901234623 | 26 | 289 | 4.8 | 9.7 | 0.00 | 0.15 | 0.15 | 90 | 1010.4 |
| 20260901234523 | 26 | 309 | 6.4 | 9.7 | 0.00 | 0.15 | 0.15 | 89 | 1010.3 |
| 20260901234424 | 26 | 281 | 4.8 | 9.7 | 0.00 | 0.15 | 0.15 | 89 | 1010.4 |
| 20260901234323 | 26 | 285 | 3.2 | 9.7 | 0.00 | 0.15 | 0.15 | 89 | 1010.3 |
| 20260901234223 | 26 | 295 | 4.8 | 9.7 | 0.00 | 0.15 | 0.15 | 89 | 1010.4 |
| 20260901234124 | 26 | 282 | 4.8 | 9.7 | 0.00 | 0.15 | 0.15 | 89 | 1010.4 |
| 20260901234024 | 26 | 290 | 4.8 | 9.7 | 0.00 | 0.15 | 0.15 | 89 | 1010.4 |
| 20260901233922 | 26 | 283 | 4.8 | 11.3 | 0.00 | 0.15 | 0.15 | 88 | 1010.4 |
| 20260901233824 | 26 | 282 | 6.4 | 11.3 | 0.00 | 0.15 | 0.15 | 88 | 1010.4 |
| 20260901233725 | 26 | 296 | 6.4 | 16.1 | 0.00 | 0.15 | 0.15 | 88 | 1010.4 |
| 20260901233624 | 26 | 290 | 4.8 | 16.1 | 0.00 | 0.15 | 0.15 | 88 | 1010.4 |
| 20260901233525 | 26 | 281 | 3.2 | 16.1 | 0.00 | 0.15 | 0.15 | 88 | 1010.4 |
| 20260901233422 | 26 | 286 | 3.2 | 16.1 | 0.00 | 0.15 | 0.15 | 88 | 1010.5 |
| 20260901233324 | 27 | 286 | 4.8 | 16.1 | 0.00 | 0.15 | 0.15 | 88 | 1010.5 |
| 20260901233223 | 27 | 286 | 6.4 | 16.1 | 0.00 | 0.15 | 0.15 | 88 | 1010.5 |
| 20260901233123 | 27 | 299 | 6.4 | 16.1 | 0.00 | 0.15 | 0.15 | 88 | 1010.5 |
| 20260901233024 | 27 | 282 | 6.4 | 16.1 | 0.00 | 0.15 | 0.15 | 88 | 1010.4 |
| 20260901232923 | 27 | 285 | 8.0 | 16.1 | 0.00 | 0.15 | 0.15 | 87 | 1010.5 |
| 20260901232822 | 27 | 289 | 8.0 | 16.1 | 0.00 | 0.15 | 0.15 | 88 | 1010.5 |
| 20260901232723 | 27 | 289 | 8.0 | 16.1 | 0.00 | 0.15 | 0.15 | 88 | 1010.5 |
| 20260901232623 | 27 | 283 | 6.4 | 14.5 | 0.00 | 0.15 | 0.15 | 89 | 1010.5 |
| 20260901232524 | 27 | 295 | 4.8 | 14.5 | 0.00 | 0.15 | 0.15 | 89 | 1010.5 |
| 20260901232423 | 27 | 295 | 4.8 | 14.5 | 0.00 | 0.15 | 0.15 | 89 | 1010.5 |
| 20260901232323 | 27 | 295 | 4.8 | 14.5 | 0.00 | 0.15 | 0.15 | 89 | 1010.5 |
| 20260901232223 | 27 | 292 | 6.4 | 14.5 | 0.00 | 0.15 | 0.15 | 89 | 1010.5 |
| 20260901232123 | 27 | 292 | 8.0 | 14.5 | 0.00 | 0.15 | 0.15 | 89 | 1010.6 |
| 20260901232024 | 27 | 289 | 9.7 | 14.5 | 0.00 | 0.15 | 0.15 | 89 | 1010.6 |
| 20260901231923 | 27 | 296 | 8.0 | 14.5 | 0.00 | 0.15 | 0.15 | 90 | 1010.6 |
| 20260901231822 | 27 | 283 | 4.8 | 9.7 | 0.00 | 0.15 | 0.15 | 90 | 1010.7 |
| 20260901231722 | 27 | 275 | 4.8 | 9.7 | 0.00 | 0.15 | 0.15 | 90 | 1010.6 |
| 20260901231624 | 27 | 290 | 3.2 | 9.7 | 0.00 | 0.15 | 0.15 | 91 | 1010.7 |
| 20260901231522 | 27 | 292 | 3.2 | 9.7 | 0.00 | 0.15 | 0.15 | 91 | 1010.6 |
| 20260901231423 | 27 | 289 | 4.8 | 9.7 | 0.00 | 0.15 | 0.15 | 90 | 1010.7 |
| 20260901231322 | 27 | 288 | 6.4 | 9.7 | 0.00 | 0.15 | 0.15 | 90 | 1010.7 |
| 20260901231222 | 27 | 0 | 6.4 | 9.7 | 0.00 | 0.15 | 0.15 | 91 | 1010.8 |
| 20260901231123 | 27 | 296 | 6.4 | 9.7 | 0.03 | 0.15 | 0.15 | 91 | 1010.8 |
| 20260901231022 | 27 | 276 | 4.8 | 8.0 | 0.03 | 0.15 | 0.15 | 91 | 1010.8 |
| 20260901230924 | 26 | 285 | 3.2 | 11.3 | 0.03 | 0.15 | 0.15 | 91 | 1010.8 |
| 20260901230822 | 27 | 300 | 4.8 | 11.3 | 0.03 | 0.15 | 0.15 | 91 | 1010.8 |
| 20260901230722 | 27 | 292 | 4.8 | 11.3 | 0.03 | 0.15 | 0.15 | 91 | 1010.8 |
| 20260901230622 | 27 | 293 | 4.8 | 11.3 | 0.03 | 0.15 | 0.15 | 91 | 1010.8 |
| 20260901230522 | 27 | 296 | 4.8 | 11.3 | 0.03 | 0.15 | 0.15 | 91 | 1010.9 |
| 20260901230422 | 26 | 299 | 3.2 | 11.3 | 0.03 | 0.15 | 0.15 | 91 | 1010.9 |
| 20260901230323 | 26 | 303 | 4.8 | 11.3 | 0.03 | 0.15 | 0.15 | 91 | 1010.9 |
| 20260901230223 | 26 | 295 | 6.4 | 11.3 | 0.03 | 0.15 | 0.15 | 91 | 1010.9 |
| 20260901230122 | 26 | 285 | 6.4 | 11.3 | 0.03 | 0.15 | 0.15 | 91 | 1010.9 |
| 20260901230022 | 26 | 282 | 4.8 | 11.3 | 0.03 | 0.13 | 0.15 | 91 | 1011.0 |
| 20260901225923 | 26 | 285 | 6.4 | 11.3 | 0.03 | 0.13 | 0.15 | 91 | 1010.9 |
| 20260901225822 | 26 | 279 | 6.4 | 11.3 | 0.03 | 0.13 | 0.15 | 91 | 1010.9 |
| 20260901225722 | 26 | 283 | 6.4 | 11.3 | 0.03 | 0.13 | 0.15 | 91 | 1010.9 |
| 20260901225623 | 26 | 292 | 6.4 | 11.3 | 0.03 | 0.13 | 0.15 | 91 | 1010.9 |
| 20260901225523 | 26 | 281 | 6.4 | 11.3 | 0.03 | 0.13 | 0.15 | 91 | 1011.0 |
| 20260901225422 | 26 | 281 | 4.8 | 11.3 | 0.03 | 0.13 | 0.15 | 91 | 1011.0 |
| 20260901225321 | 26 | 289 | 3.2 | 11.3 | 0.03 | 0.13 | 0.15 | 91 | 1010.9 |
| 20260901225222 | 26 | 292 | 4.8 | 11.3 | 0.03 | 0.13 | 0.15 | 91 | 1011.0 |
| 20260901225122 | 26 | 288 | 4.8 | 16.1 | 0.03 | 0.13 | 0.15 | 91 | 1011.0 |
| 20260901225022 | 26 | 310 | 6.4 | 16.1 | 0.03 | 0.13 | 0.15 | 91 | 1011.1 |
| 20260901224921 | 26 | 299 | 6.4 | 16.1 | 0.03 | 0.13 | 0.15 | 91 | 1011.1 |
| 20260901224823 | 26 | 283 | 6.4 | 16.1 | 0.03 | 0.13 | 0.15 | 91 | 1011.1 |
| 20260901224723 | 26 | 283 | 6.4 | 16.1 | 0.03 | 0.13 | 0.15 | 91 | 1011.2 |
| 20260901224622 | 26 | 283 | 6.4 | 16.1 | 0.03 | 0.13 | 0.15 | 91 | 1011.2 |
| 20260901224523 | 26 | 283 | 6.4 | 16.1 | 0.03 | 0.13 | 0.15 | 91 | 1011.2 |
| 20260901224422 | 26 | 306 | 6.4 | 16.1 | 0.03 | 0.13 | 0.15 | 91 | 1011.2 |
| 20260901224322 | 26 | 0 | 6.4 | 16.1 | 0.03 | 0.13 | 0.15 | 91 | 1011.3 |
| 20260901224221 | 26 | 302 | 8.0 | 16.1 | 0.03 | 0.13 | 0.15 | 91 | 1011.3 |
| 20260901224123 | 26 | 298 | 9.7 | 16.1 | 0.03 | 0.13 | 0.15 | 91 | 1011.3 |
| 20260901224023 | 26 | 295 | 8.0 | 16.1 | 0.03 | 0.13 | 0.15 | 91 | 1011.3 |
| 20260901223922 | 26 | 288 | 8.0 | 14.5 | 0.03 | 0.13 | 0.15 | 91 | 1011.3 |
| 20260901223821 | 26 | 285 | 8.0 | 16.1 | 0.03 | 0.13 | 0.15 | 91 | 1011.3 |
| 20260901223722 | 26 | 8 | 9.7 | 16.1 | 0.03 | 0.13 | 0.15 | 90 | 1011.4 |
| 20260901223623 | 26 | 303 | 9.7 | 17.7 | 0.03 | 0.13 | 0.15 | 90 | 1011.3 |
| 20260901223521 | 26 | 296 | 8.0 | 17.7 | 0.03 | 0.13 | 0.15 | 91 | 1011.4 |
| 20260901223423 | 26 | 293 | 9.7 | 17.7 | 0.03 | 0.13 | 0.15 | 90 | 1011.3 |
| 20260901223321 | 26 | 16 | 9.7 | 17.7 | 0.03 | 0.13 | 0.15 | 90 | 1011.3 |
| 20260901223223 | 26 | 4 | 6.4 | 17.7 | 0.03 | 0.13 | 0.15 | 91 | 1011.3 |
| 20260901223122 | 26 | 10 | 6.4 | 17.7 | 0.03 | 0.13 | 0.15 | 91 | 1011.3 |
| 20260901223021 | 26 | 0 | 9.7 | 17.7 | 0.03 | 0.13 | 0.15 | 90 | 1011.3 |
| 20260901222921 | 26 | 4 | 9.7 | 17.7 | 0.03 | 0.13 | 0.15 | 91 | 1011.3 |
| 20260901222822 | 26 | 0 | 9.7 | 17.7 | 0.03 | 0.13 | 0.15 | 90 | 1011.3 |
| 20260901222721 | 26 | 23 | 11.3 | 17.7 | 0.03 | 0.13 | 0.15 | 90 | 1011.3 |
| 20260901222622 | 26 | 3 | 8.0 | 16.1 | 0.03 | 0.13 | 0.15 | 91 | 1011.3 |
| 20260901222521 | 26 | 0 | 8.0 | 16.1 | 0.03 | 0.13 | 0.15 | 91 | 1011.3 |
| 20260901222421 | 26 | 299 | 6.4 | 16.1 | 0.03 | 0.13 | 0.15 | 91 | 1011.2 |
| 20260901222321 | 26 | 13 | 4.8 | 11.3 | 0.03 | 0.13 | 0.15 | 91 | 1011.3 |
| 20260901222221 | 26 | 8 | 3.2 | 11.3 | 0.03 | 0.13 | 0.15 | 91 | 1011.3 |
| 20260901222121 | 26 | 10 | 3.2 | 11.3 | 0.03 | 0.13 | 0.15 | 91 | 1011.3 |
| 20260901222022 | 26 | 10 | 6.4 | 11.3 | 0.03 | 0.13 | 0.15 | 90 | 1011.4 |
| 20260901221922 | 26 | 31 | 8.0 | 11.3 | 0.03 | 0.13 | 0.15 | 90 | 1011.3 |
| 20260901221803 | 26 | 18 | 8.0 | 11.3 | 0.03 | 0.13 | 0.15 | 90 | 1011.3 |
| 20260901221704 | 26 | 20 | 8.0 | 11.3 | 0.03 | 0.13 | 0.15 | 90 | 1011.3 |
| 20260901221605 | 26 | 11 | 9.7 | 11.3 | 0.03 | 0.13 | 0.15 | 90 | 1011.3 |
| 20260901221503 | 26 | 25 | 9.7 | 11.3 | 0.03 | 0.13 | 0.15 | 90 | 1011.3 |
| 20260901221401 | 26 | 18 | 8.0 | 11.3 | 0.03 | 0.13 | 0.15 | 90 | 1011.3 |
| 20260901221302 | 26 | 20 | 6.4 | 8.0 | 0.03 | 0.13 | 0.15 | 90 | 1011.3 |
| 20260901221203 | 27 | 39 | 4.8 | 8.0 | 0.03 | 0.13 | 0.13 | 90 | 1011.3 |
| 20260901221102 | 27 | 16 | 4.8 | 8.0 | 0.00 | 0.13 | 0.13 | 90 | 1011.3 |
| 20260901221004 | 27 | 16 | 6.4 | 8.0 | 0.00 | 0.13 | 0.13 | 90 | 1011.3 |
| 20260901220904 | 27 | 21 | 4.8 | 11.3 | 0.00 | 0.13 | 0.13 | 90 | 1011.4 |
| 20260901220804 | 27 | 7 | 4.8 | 11.3 | 0.00 | 0.13 | 0.13 | 90 | 1011.4 |
| 20260901220702 | 27 | 13 | 4.8 | 11.3 | 0.00 | 0.13 | 0.13 | 90 | 1011.4 |
| 20260901220603 | 27 | 20 | 4.8 | 14.5 | 0.00 | 0.13 | 0.13 | 90 | 1011.4 |
| 20260901220503 | 27 | 20 | 4.8 | 14.5 | 0.00 | 0.13 | 0.13 | 90 | 1011.4 |
| 20260901220404 | 27 | 23 | 4.8 | 14.5 | 0.00 | 0.13 | 0.13 | 89 | 1011.4 |
| 20260901220302 | 27 | 23 | 4.8 | 14.5 | 0.00 | 0.13 | 0.13 | 89 | 1011.4 |
| 20260901220204 | 27 | 39 | 8.0 | 16.1 | 0.00 | 0.13 | 0.13 | 89 | 1011.4 |
| 20260901220035 | 27 | 39 | 8.0 | 16.1 | 0.00 | 0.13 | 0.13 | 89 | 1011.4 |
| 20260901215932 | 27 | 39 | 8.0 | 16.1 | 0.00 | 0.13 | 0.00 | 89 | 1011.4 |
| 20260901215832 | 27 | 23 | 8.0 | 16.1 | 0.00 | 0.13 | 0.00 | 89 | 1011.4 |
| 20260901215732 | 27 | 42 | 9.7 | 16.1 | 0.00 | 0.13 | 0.00 | 89 | 1011.3 |
| 20260901215634 | 27 | 66 | 9.7 | 16.1 | 0.00 | 0.13 | 0.00 | 88 | 1011.4 |
| 20260901215531 | 27 | 63 | 9.7 | 16.1 | 0.00 | 0.13 | 0.00 | 89 | 1011.4 |
| 20260901215431 | 27 | 44 | 9.7 | 16.1 | 0.00 | 0.13 | 0.00 | 88 | 1011.4 |
| 20260901215332 | 27 | 41 | 11.3 | 17.7 | 0.00 | 0.13 | 0.00 | 88 | 1011.4 |
| 20260901215233 | 27 | 42 | 9.7 | 17.7 | 0.00 | 0.13 | 0.00 | 89 | 1011.4 |
| 20260901215132 | 27 | 47 | 6.4 | 17.7 | 0.00 | 0.13 | 0.00 | 89 | 1011.4 |
| 20260901215033 | 27 | 39 | 6.4 | 17.7 | 0.05 | 0.13 | 0.00 | 89 | 1011.3 |
| 20260901214931 | 27 | 38 | 8.0 | 17.7 | 0.05 | 0.13 | 0.00 | 88 | 1011.4 |
| 20260901214832 | 27 | 58 | 8.0 | 17.7 | 0.05 | 0.13 | 0.00 | 88 | 1011.5 |
| 20260901214732 | 27 | 45 | 8.0 | 17.7 | 0.05 | 0.13 | 0.00 | 88 | 1011.4 |
| 20260901214631 | 27 | 32 | 11.3 | 17.7 | 0.05 | 0.13 | 0.00 | 88 | 1011.4 |
| 20260901214532 | 27 | 24 | 12.9 | 17.7 | 0.05 | 0.13 | 0.00 | 88 | 1011.4 |
| 20260901214432 | 27 | 27 | 14.5 | 17.7 | 0.05 | 0.13 | 0.00 | 88 | 1011.5 |
| 20260901214332 | 28 | 55 | 12.9 | 17.7 | 0.05 | 0.13 | 0.00 | 88 | 1011.5 |
| 20260901214231 | 28 | 24 | 9.7 | 17.7 | 0.05 | 0.13 | 0.00 | 88 | 1011.5 |
| 20260901214132 | 28 | 24 | 9.7 | 17.7 | 0.05 | 0.13 | 0.00 | 88 | 1011.4 |
| 20260901214032 | 28 | 24 | 9.7 | 17.7 | 0.05 | 0.13 | 0.00 | 88 | 1011.5 |
| 20260901213933 | 28 | 24 | 9.7 | 17.7 | 0.05 | 0.13 | 0.00 | 88 | 1011.4 |
| 20260901213833 | 28 | 51 | 9.7 | 17.7 | 0.05 | 0.13 | 0.00 | 88 | 1011.5 |
| 20260901213730 | 28 | 66 | 9.7 | 11.3 | 0.08 | 0.13 | 0.00 | 88 | 1011.6 |
| 20260901213632 | 28 | 47 | 6.4 | 11.3 | 0.08 | 0.13 | 0.00 | 88 | 1011.6 |
| 20260901213531 | 28 | 24 | 4.8 | 6.4 | 0.08 | 0.13 | 0.00 | 88 | 1011.5 |
| 20260901213431 | 28 | 14 | 4.8 | 6.4 | 0.08 | 0.13 | 0.00 | 88 | 1011.4 |
| 20260901213331 | 28 | 14 | 3.2 | 6.4 | 0.08 | 0.13 | 0.00 | 89 | 1011.4 |
| 20260901213232 | 28 | 14 | 1.6 | 4.8 | 0.08 | 0.13 | 0.00 | 88 | 1011.4 |
| 20260901213132 | 28 | 14 | 0.0 | 0.0 | 0.10 | 0.13 | 0.00 | 88 | 1011.3 |
| 20260901213030 | 28 | 14 | 0.0 | 0.0 | 0.10 | 0.13 | 0.00 | 88 | 1011.3 |
| 20260901212932 | 28 | 14 | 0.0 | 0.0 | 0.10 | 0.13 | 0.00 | 88 | 1011.3 |
| 20260901212832 | 28 | 14 | 0.0 | 0.0 | 0.10 | 0.13 | 0.00 | 88 | 1011.3 |
| 20260901212732 | 28 | 14 | 0.0 | 1.6 | 0.10 | 0.13 | 0.00 | 88 | 1011.3 |
| 20260901212633 | 28 | 14 | 0.0 | 1.6 | 0.10 | 0.13 | 0.00 | 87 | 1011.3 |
| 20260901212532 | 28 | 14 | 0.0 | 1.6 | 0.13 | 0.13 | 0.00 | 87 | 1011.3 |
| 20260901212431 | 28 | 14 | 0.0 | 1.6 | 0.13 | 0.13 | 0.00 | 87 | 1011.2 |
| 20260901212332 | 28 | 14 | 0.0 | 1.6 | 0.13 | 0.13 | 0.00 | 86 | 1011.4 |
| 20260901212231 | 28 | 14 | 0.0 | 1.6 | 0.13 | 0.13 | 0.00 | 86 | 1011.4 |
| 20260901212132 | 28 | 14 | 0.0 | 1.6 | 0.13 | 0.13 | 0.00 | 86 | 1011.4 |
| 20260901212031 | 28 | 14 | 0.0 | 1.6 | 0.13 | 0.13 | 0.00 | 87 | 1011.4 |
| 20260901211933 | 28 | 14 | 0.0 | 1.6 | 0.13 | 0.13 | 0.00 | 87 | 1011.4 |
| 20260901211833 | 28 | 14 | 0.0 | 1.6 | 0.13 | 0.13 | 0.00 | 86 | 1011.4 |
| 20260901211731 | 28 | 14 | 0.0 | 1.6 | 0.13 | 0.13 | 0.00 | 86 | 1011.3 |
| 20260901211631 | 28 | 14 | 0.0 | 1.6 | 0.13 | 0.13 | 0.00 | 86 | 1011.3 |
| 20260901211532 | 28 | 14 | 0.0 | 3.2 | 0.13 | 0.13 | 0.00 | 85 | 1011.3 |
| 20260901211431 | 27 | 14 | 3.2 | 4.8 | 0.13 | 0.13 | 0.00 | 87 | 1011.3 |
| 20260901211333 | 27 | 14 | 3.2 | 4.8 | 0.13 | 0.13 | 0.00 | 87 | 1011.3 |
| 20260901211232 | 27 | 14 | 3.2 | 4.8 | 0.13 | 0.13 | 0.00 | 87 | 1011.3 |
| 20260901211133 | 27 | 14 | 3.2 | 4.8 | 0.13 | 0.13 | 0.00 | 87 | 1011.3 |
| 20260901211032 | 27 | 14 | 3.2 | 4.8 | 0.13 | 0.13 | 0.00 | 87 | 1011.3 |
| 20260901210932 | 27 | 14 | 3.2 | 4.8 | 0.13 | 0.13 | 0.00 | 87 | 1011.3 |
| 20260901210831 | 27 | 14 | 3.2 | 4.8 | 0.13 | 0.13 | 0.00 | 87 | 1011.3 |
| 20260901210732 | 27 | 14 | 3.2 | 4.8 | 0.13 | 0.13 | 0.00 | 87 | 1011.3 |
| 20260901210622 | 27 | 14 | 3.2 | 4.8 | 0.13 | 0.13 | 0.00 | 87 | 1011.3 |
| 20260901210518 | 27 | 14 | 3.2 | 4.8 | 0.13 | 0.13 | 0.00 | 87 | 1011.3 |
| 20260901210419 | 27 | 14 | 3.2 | 6.4 | 0.13 | 0.13 | 0.00 | 86 | 1011.4 |
| 20260901210319 | 27 | 11 | 4.8 | 8.0 | 0.13 | 0.13 | 0.13 | 86 | 1011.4 |
| 20260901210218 | 27 | 11 | 4.8 | 8.0 | 0.13 | 0.13 | 0.13 | 86 | 1011.3 |
| 20260901210116 | 27 | 11 | 4.8 | 8.0 | 0.13 | 0.13 | 0.13 | 86 | 1011.3 |
| 20260901210018 | 27 | 11 | 4.8 | 8.0 | 0.13 | 0.00 | 0.13 | 86 | 1011.3 |
| 20260901205916 | 27 | 11 | 4.8 | 8.0 | 0.13 | 0.00 | 0.13 | 86 | 1011.3 |
| 20260901205817 | 27 | 11 | 4.8 | 8.0 | 0.13 | 0.00 | 0.13 | 86 | 1011.3 |
| 20260901205717 | 27 | 11 | 4.8 | 8.0 | 0.13 | 0.00 | 0.13 | 86 | 1011.2 |
| 20260901205616 | 27 | 11 | 4.8 | 8.0 | 0.13 | 0.00 | 0.13 | 86 | 1011.2 |
| 20260901205516 | 28 | 11 | 4.8 | 8.0 | 0.13 | 0.00 | 0.13 | 86 | 1011.3 |
| 20260901205415 | 28 | 11 | 4.8 | 8.0 | 0.13 | 0.00 | 0.13 | 86 | 1011.3 |
| 20260901205316 | 28 | 8 | 3.2 | 4.8 | 0.13 | 0.00 | 0.13 | 86 | 1011.3 |
| 20260901205215 | 28 | 8 | 3.2 | 4.8 | 0.13 | 0.00 | 0.13 | 86 | 1011.3 |
| 20260901205115 | 28 | 8 | 1.6 | 6.4 | 0.13 | 0.00 | 0.13 | 86 | 1011.3 |
| 20260901205016 | 28 | 10 | 4.8 | 6.4 | 0.08 | 0.00 | 0.08 | 85 | 1011.3 |
| 20260901204916 | 28 | 10 | 4.8 | 6.4 | 0.08 | 0.00 | 0.08 | 85 | 1011.3 |
| 20260901204814 | 28 | 10 | 4.8 | 6.4 | 0.08 | 0.00 | 0.08 | 85 | 1011.3 |
| 20260901204714 | 28 | 10 | 4.8 | 6.4 | 0.08 | 0.00 | 0.08 | 85 | 1011.3 |
| 20260901204615 | 28 | 10 | 4.8 | 6.4 | 0.08 | 0.00 | 0.08 | 85 | 1011.3 |
| 20260901204514 | 28 | 10 | 4.8 | 6.4 | 0.08 | 0.00 | 0.08 | 85 | 1011.3 |
| 20260901204415 | 28 | 10 | 4.8 | 6.4 | 0.08 | 0.00 | 0.08 | 85 | 1011.3 |
| 20260901204315 | 28 | 10 | 4.8 | 6.4 | 0.08 | 0.00 | 0.08 | 85 | 1011.3 |
| 20260901204213 | 28 | 10 | 4.8 | 6.4 | 0.08 | 0.00 | 0.08 | 85 | 1011.3 |
| 20260901204114 | 28 | 10 | 4.8 | 6.4 | 0.08 | 0.00 | 0.08 | 84 | 1011.2 |
| 20260901204013 | 28 | 10 | 4.8 | 6.4 | 0.08 | 0.00 | 0.08 | 84 | 1011.2 |
| 20260901203913 | 28 | 10 | 4.8 | 6.4 | 0.08 | 0.00 | 0.08 | 84 | 1011.3 |
| 20260901203815 | 28 | 10 | 6.4 | 6.4 | 0.08 | 0.00 | 0.08 | 82 | 1011.2 |
| 20260901203714 | 29 | 0 | 3.2 | 4.8 | 0.05 | 0.00 | 0.05 | 82 | 1011.2 |
| 20260901203614 | 29 | 0 | 3.2 | 6.4 | 0.05 | 0.00 | 0.05 | 82 | 1011.2 |
| 20260901203505 | 29 | 0 | 3.2 | 6.4 | 0.05 | 0.00 | 0.05 | 82 | 1011.2 |
| 20260901203403 | 29 | 0 | 3.2 | 6.4 | 0.05 | 0.00 | 0.05 | 82 | 1011.2 |
| 20260901203301 | 29 | 0 | 1.6 | 6.4 | 0.05 | 0.00 | 0.03 | 83 | 1011.2 |
| 20260901203203 | 29 | 0 | 3.2 | 6.4 | 0.03 | 0.00 | 0.03 | 81 | 1011.2 |
| 20260901203102 | 29 | 0 | 3.2 | 6.4 | 0.03 | 0.00 | 0.03 | 80 | 1011.2 |
| 20260901203004 | 30 | 0 | 3.2 | 6.4 | 0.03 | 0.00 | 0.03 | 79 | 1011.2 |
| 20260901202902 | 30 | 0 | 3.2 | 6.4 | 0.03 | 0.00 | 0.03 | 79 | 1011.2 |
| 20260901202801 | 30 | 0 | 3.2 | 6.4 | 0.03 | 0.00 | 0.03 | 77 | 1011.2 |
| 20260901202701 | 30 | 0 | 4.8 | 6.4 | 0.03 | 0.00 | 0.03 | 76 | 1011.2 |
| 20260901202603 | 30 | 0 | 3.2 | 8.0 | 0.00 | 0.00 | 0.00 | 76 | 1011.2 |
| 20260901202503 | 30 | 0 | 3.2 | 8.0 | 0.00 | 0.00 | 0.00 | 75 | 1011.3 |
| 20260901202402 | 30 | 0 | 4.8 | 8.0 | 0.00 | 0.00 | 0.00 | 75 | 1011.3 |
| 20260901202305 | 30 | 351 | 4.8 | 8.0 | 0.00 | 0.00 | 0.00 | 74 | 1011.3 |
| 20260901202205 | 31 | 333 | 4.8 | 11.3 | 0.00 | 0.00 | 0.00 | 74 | 1011.3 |
| 20260901202102 | 31 | 331 | 3.2 | 11.3 | 0.00 | 0.00 | 0.00 | 74 | 1011.3 |
| 20260901202004 | 31 | 327 | 4.8 | 11.3 | 0.00 | 0.00 | 0.00 | 73 | 1011.3 |
| 20260901201904 | 31 | 327 | 4.8 | 11.3 | 0.00 | 0.00 | 0.00 | 72 | 1011.3 |
| 20260901201802 | 31 | 327 | 4.8 | 11.3 | 0.00 | 0.00 | 0.00 | 72 | 1011.3 |
| 20260901201702 | 31 | 0 | 4.8 | 11.3 | 0.00 | 0.00 | 0.00 | 71 | 1011.3 |
| 20260901201603 | 31 | 324 | 6.4 | 11.3 | 0.00 | 0.00 | 0.00 | 71 | 1011.3 |
| 20260901201502 | 31 | 331 | 6.4 | 11.3 | 0.00 | 0.00 | 0.00 | 71 | 1011.3 |
| 20260901201400 | 31 | 331 | 6.4 | 11.3 | 0.00 | 0.00 | 0.00 | 71 | 1011.4 |
| 20260901201259 | 31 | 307 | 6.4 | 11.3 | 0.00 | 0.00 | 0.00 | 71 | 1011.4 |
| 20260901201159 | 31 | 317 | 4.8 | 9.7 | 0.00 | 0.00 | 0.00 | 71 | 1011.4 |
| 20260901201056 | 31 | 354 | 4.8 | 11.3 | 0.00 | 0.00 | 0.00 | 71 | 1011.4 |
| 20260901200954 | 31 | 313 | 4.8 | 11.3 | 0.00 | 0.00 | 0.00 | 72 | 1011.4 |
| 20260901200853 | 31 | 336 | 6.4 | 11.3 | 0.00 | 0.00 | 0.00 | 72 | 1011.5 |
| 20260901200744 | 31 | 336 | 6.4 | 11.3 | 0.00 | 0.00 | 0.00 | 71 | 1011.5 |
| 20260901200640 | 31 | 321 | 6.4 | 16.1 | 0.00 | 0.00 | 0.00 | 71 | 1011.5 |
| 20260901200535 | 31 | 331 | 6.4 | 16.1 | 0.00 | 0.00 | 0.00 | 71 | 1011.6 |
| 20260901200434 | 31 | 331 | 4.8 | 16.1 | 0.00 | 0.00 | 0.00 | 72 | 1011.5 |
| 20260901200331 | 31 | 350 | 6.4 | 16.1 | 0.00 | 0.00 | 0.00 | 71 | 1011.6 |
| 20260901200230 | 31 | 345 | 8.0 | 16.1 | 0.00 | 0.00 | 0.00 | 71 | 1011.6 |
| 20260901200132 | 31 | 312 | 8.0 | 16.1 | 0.00 | 0.00 | 0.00 | 71 | 1011.7 |
| 20260901200033 | 31 | 313 | 6.4 | 16.1 | 0.00 | 0.00 | 0.00 | 71 | 1011.7 |
| 20260901195932 | 31 | 309 | 6.4 | 16.1 | 0.00 | 0.00 | 0.00 | 71 | 1011.8 |
| 20260901195831 | 31 | 309 | 8.0 | 16.1 | 0.00 | 0.00 | 0.00 | 71 | 1011.8 |
| 20260901195733 | 31 | 300 | 9.7 | 16.1 | 0.00 | 0.00 | 0.00 | 71 | 1011.8 |
| 20260901195631 | 31 | 300 | 8.0 | 11.3 | 0.00 | 0.00 | 0.00 | 70 | 1011.9 |
| 20260901195531 | 31 | 313 | 8.0 | 9.7 | 0.00 | 0.00 | 0.00 | 70 | 1011.9 |
| 20260901195432 | 31 | 302 | 4.8 | 9.7 | 0.00 | 0.00 | 0.00 | 71 | 1012.0 |
| 20260901195333 | 31 | 337 | 4.8 | 9.7 | 0.00 | 0.00 | 0.00 | 71 | 1012.0 |
| 20260901195231 | 31 | 338 | 4.8 | 9.7 | 0.00 | 0.00 | 0.00 | 71 | 1012.0 |
| 20260901195132 | 31 | 345 | 3.2 | 14.5 | 0.00 | 0.00 | 0.00 | 71 | 1012.0 |
| 20260901195032 | 31 | 345 | 4.8 | 16.1 | 0.00 | 0.00 | 0.00 | 72 | 1012.1 |
| 20260901194934 | 31 | 345 | 4.8 | 16.1 | 0.00 | 0.00 | 0.00 | 71 | 1012.1 |
| 20260901194830 | 31 | 316 | 6.4 | 16.1 | 0.00 | 0.00 | 0.00 | 71 | 1012.1 |
| 20260901194731 | 31 | 307 | 6.4 | 16.1 | 0.00 | 0.00 | 0.00 | 72 | 1012.1 |
| 20260901194630 | 31 | 351 | 6.4 | 16.1 | 0.00 | 0.00 | 0.00 | 72 | 1012.2 |
| 20260901194529 | 31 | 317 | 6.4 | 16.1 | 0.00 | 0.00 | 0.00 | 71 | 1012.2 |
| 20260901194429 | 31 | 298 | 6.4 | 16.1 | 0.00 | 0.00 | 0.00 | 71 | 1012.2 |
| 20260901194327 | 31 | 309 | 8.0 | 16.1 | 0.00 | 0.00 | 0.00 | 71 | 1012.2 |
| 20260901194224 | 31 | 303 | 9.7 | 16.1 | 0.00 | 0.00 | 0.00 | 71 | 1012.2 |
| 20260901194123 | 31 | 300 | 9.7 | 16.1 | 0.00 | 0.00 | 0.00 | 71 | 1012.2 |
| 20260901194021 | 31 | 298 | 9.7 | 14.5 | 0.00 | 0.00 | 0.00 | 71 | 1012.2 |
| 20260901193921 | 31 | 321 | 8.0 | 14.5 | 0.00 | 0.00 | 0.00 | 71 | 1012.3 |
| 20260901193820 | 31 | 326 | 6.4 | 14.5 | 0.00 | 0.00 | 0.00 | 71 | 1012.3 |
| 20260901193717 | 31 | 337 | 6.4 | 14.5 | 0.00 | 0.00 | 0.00 | 71 | 1012.3 |
| 20260901193617 | 31 | 319 | 8.0 | 14.5 | 0.00 | 0.00 | 0.00 | 72 | 1012.3 |
| 20260901193515 | 31 | 307 | 9.7 | 14.5 | 0.00 | 0.00 | 0.00 | 71 | 1012.3 |
| 20260901193414 | 31 | 300 | 9.7 | 14.5 | 0.00 | 0.00 | 0.00 | 71 | 1012.4 |
| 20260901193309 | 31 | 231 | 6.4 | 9.7 | 0.00 | 0.00 | 0.00 | 70 | 1012.4 |
| 20260901193206 | 31 | 312 | 4.8 | 9.7 | 0.00 | 0.00 | 0.00 | 70 | 1012.5 |
| 20260901193105 | 31 | 286 | 4.8 | 9.7 | 0.00 | 0.00 | 0.00 | 71 | 1012.5 |
| 20260901193003 | 31 | 323 | 3.2 | 9.7 | 0.00 | 0.00 | 0.00 | 70 | 1012.5 |
| 20260901192903 | 31 | 323 | 1.6 | 9.7 | 0.00 | 0.00 | 0.00 | 70 | 1012.4 |
| 20260901192801 | 31 | 323 | 1.6 | 9.7 | 0.00 | 0.00 | 0.00 | 70 | 1012.5 |
| 20260901192702 | 31 | 323 | 1.6 | 9.7 | 0.00 | 0.00 | 0.00 | 70 | 1012.5 |
| 20260901192601 | 31 | 323 | 3.2 | 9.7 | 0.00 | 0.00 | 0.00 | 71 | 1012.6 |
| 20260901192503 | 31 | 323 | 6.4 | 9.7 | 0.00 | 0.00 | 0.00 | 71 | 1012.5 |
| 20260901192404 | 31 | 323 | 6.4 | 9.7 | 0.00 | 0.00 | 0.00 | 71 | 1012.6 |
| 20260901192306 | 31 | 314 | 6.4 | 9.7 | 0.00 | 0.00 | 0.00 | 71 | 1012.5 |
| 20260901192202 | 31 | 296 | 6.4 | 8.0 | 0.00 | 0.00 | 0.00 | 72 | 1012.6 |
| 20260901192103 | 31 | 295 | 4.8 | 8.0 | 0.00 | 0.00 | 0.00 | 71 | 1012.6 |
| 20260901192004 | 31 | 310 | 3.2 | 6.4 | 0.00 | 0.00 | 0.00 | 72 | 1012.5 |
| 20260901191902 | 31 | 320 | 3.2 | 6.4 | 0.00 | 0.00 | 0.00 | 72 | 1012.5 |
| 20260901191802 | 31 | 320 | 3.2 | 6.4 | 0.00 | 0.00 | 0.00 | 72 | 1012.6 |
| 20260901191704 | 31 | 320 | 4.8 | 6.4 | 0.00 | 0.00 | 0.00 | 71 | 1012.6 |
| 20260901191603 | 31 | 320 | 3.2 | 6.4 | 0.00 | 0.00 | 0.00 | 72 | 1012.5 |
| 20260901191501 | 31 | 305 | 1.6 | 6.4 | 0.00 | 0.00 | 0.00 | 72 | 1012.6 |
| 20260901191403 | 31 | 303 | 1.6 | 6.4 | 0.00 | 0.00 | 0.00 | 72 | 1012.6 |
| 20260901191303 | 31 | 303 | 1.6 | 6.4 | 0.00 | 0.00 | 0.00 | 71 | 1012.6 |
| 20260901191203 | 31 | 303 | 3.2 | 6.4 | 0.00 | 0.00 | 0.00 | 71 | 1012.5 |
| 20260901191102 | 31 | 303 | 3.2 | 6.4 | 0.00 | 0.00 | 0.00 | 72 | 1012.6 |
| 20260901191003 | 31 | 340 | 3.2 | 6.4 | 0.00 | 0.00 | 0.00 | 71 | 1012.6 |
| 20260901190902 | 31 | 340 | 4.8 | 6.4 | 0.00 | 0.00 | 0.00 | 72 | 1012.5 |
| 20260901190802 | 31 | 340 | 3.2 | 6.4 | 0.00 | 0.00 | 0.00 | 72 | 1012.5 |
| 20260901190704 | 31 | 303 | 3.2 | 6.4 | 0.00 | 0.00 | 0.00 | 73 | 1012.4 |
| 20260901190602 | 31 | 303 | 3.2 | 6.4 | 0.00 | 0.00 | 0.00 | 73 | 1012.5 |
| 20260901190502 | 31 | 303 | 3.2 | 6.4 | 0.00 | 0.00 | 0.00 | 73 | 1012.5 |
| 20260901190403 | 31 | 303 | 3.2 | 6.4 | 0.00 | 0.00 | 0.00 | 74 | 1012.5 |
| 20260901190303 | 30 | 303 | 3.2 | 6.4 | 0.00 | 0.00 | 0.00 | 73 | 1012.5 |
| 20260901190202 | 30 | 303 | 3.2 | 6.4 | 0.00 | 0.00 | 0.00 | 74 | 1012.4 |
| 20260901190005 | 30 | 302 | 3.2 | 6.4 | 0.00 | 0.00 | 0.00 | 75 | 1012.4 |
| 20260901185904 | 30 | 302 | 3.2 | 6.4 | 0.00 | 0.00 | 0.00 | 75 | 1012.3 |
| 20260901185803 | 30 | 302 | 3.2 | 6.4 | 0.00 | 0.00 | 0.00 | 75 | 1012.3 |
| 20260901185704 | 30 | 302 | 3.2 | 6.4 | 0.00 | 0.00 | 0.00 | 76 | 1012.3 |
| 20260901185605 | 30 | 302 | 3.2 | 6.4 | 0.00 | 0.00 | 0.00 | 77 | 1012.3 |
| 20260901185502 | 30 | 302 | 3.2 | 6.4 | 0.00 | 0.00 | 0.00 | 78 | 1012.4 |
| 20260901185402 | 30 | 302 | 3.2 | 6.4 | 0.00 | 0.00 | 0.00 | 77 | 1012.4 |
| 20260901185305 | 30 | 302 | 3.2 | 6.4 | 0.00 | 0.00 | 0.00 | 76 | 1012.3 |